Time,TemperatureF,DewpointF,PressureIn,WindDirection,WindDirectionDegrees,WindSpeedMPH,WindSpeedGustMPH,Humidity,HourlyPrecipIn,Conditions,Clouds,dailyrainin,SoftwareType,DateUTC
2013-02-07 00:00:00,39.9,9.5,29.41,East,90,0.0,0.0,28,0.00,,,0.00,VWS V13.01,2013-02-07 06:00:00,
2013-02-07 00:01:00,39.9,9.5,29.41,East,90,0.0,0.0,28,0.00,,,0.00,VWS V13.01,2013-02-07 06:01:00,
2013-02-07 00:02:00,39.7,9.3,29.41,ESE,112,0.0,0.0,28,0.00,,,0.00,VWS V13.01,2013-02-07 06:02:00,
2013-02-07 00:03:00,39.7,9.3,29.41,ESE,112,0.0,0.0,28,0.00,,,0.00,VWS V13.01,2013-02-07 06:03:00,
2013-02-07 00:04:00,39.7,9.3,29.41,East,90,0.0,0.0,28,0.00,,,0.00,VWS V13.01,2013-02-07 06:04:00,
2013-02-07 00:05:00,39.7,9.3,29.41,ESE,112,0.0,0.0,28,0.00,,,0.00,VWS V13.01,2013-02-07 06:05:00,
2013-02-07 00:06:00,39.7,10.1,29.41,East,90,0.0,0.0,29,0.00,,,0.00,VWS V13.01,2013-02-07 06:06:00,
2013-02-07 00:07:00,39.7,10.1,29.41,East,90,0.0,0.0,29,0.00,,,0.00,VWS V13.01,2013-02-07 06:07:00,
2013-02-07 00:08:00,39.7,10.1,29.41,East,90,0.0,0.0,29,0.00,,,0.00,VWS V13.01,2013-02-07 06:08:00,
2013-02-07 00:09:00,39.7,10.1,29.41,East,90,0.0,0.0,29,0.00,,,0.00,VWS V13.01,2013-02-07 06:09:00,
2013-02-07 00:10:00,39.7,10.1,29.41,ESE,112,0.0,0.0,29,0.00,,,0.00,VWS V13.01,2013-02-07 06:10:00,
2013-02-07 00:11:00,39.6,9.9,29.41,East,90,4.0,4.0,29,0.00,,,0.00,VWS V13.01,2013-02-07 06:11:00,
2013-02-07 00:12:00,39.7,10.1,29.41,East,90,3.6,4.0,29,0.00,,,0.00,VWS V13.01,2013-02-07 06:12:00,
2013-02-07 00:13:00,39.6,9.9,29.41,East,90,3.6,4.0,29,0.00,,,0.00,VWS V13.01,2013-02-07 06:13:00,
2013-02-07 00:14:00,39.6,9.9,29.41,ESE,112,5.8,5.8,29,0.00,,,0.00,VWS V13.01,2013-02-07 06:14:00,
2013-02-07 00:15:00,39.6,9.9,29.41,East,90,3.6,5.8,29,0.00,,,0.00,VWS V13.01,2013-02-07 06:15:00,
2013-02-07 00:16:00,39.6,9.9,29.41,East,90,4.9,5.4,29,0.00,,,0.00,VWS V13.01,2013-02-07 06:16:00,
2013-02-07 00:17:00,39.6,9.9,29.41,East,90,3.1,4.9,29,0.00,,,0.00,VWS V13.01,2013-02-07 06:17:00,
2013-02-07 00:18:00,39.6,9.9,29.41,East,90,4.0,4.0,29,0.00,,,0.00,VWS V13.01,2013-02-07 06:18:00,
2013-02-07 00:19:00,39.6,9.9,29.41,ESE,112,5.8,5.8,29,0.00,,,0.00,VWS V13.01,2013-02-07 06:19:00,
2013-02-07 00:20:00,39.6,9.9,29.41,ESE,112,5.8,5.8,29,0.00,,,0.00,VWS V13.01,2013-02-07 06:20:00,
2013-02-07 00:21:00,39.6,9.9,29.41,ESE,112,3.6,5.8,29,0.00,,,0.00,VWS V13.01,2013-02-07 06:21:00,
2013-02-07 00:22:00,39.6,9.9,29.41,ESE,112,4.0,4.0,29,0.00,,,0.00,VWS V13.01,2013-02-07 06:22:00,
2013-02-07 00:23:00,39.6,9.9,29.41,East,90,5.8,5.8,29,0.00,,,0.00,VWS V13.01,2013-02-07 06:23:00,
2013-02-07 00:24:00,39.7,10.1,29.41,SE,135,5.4,5.8,29,0.00,,,0.00,VWS V13.01,2013-02-07 06:24:00,
2013-02-07 00:25:00,39.7,10.1,29.41,East,90,3.1,5.4,29,0.00,,,0.00,VWS V13.01,2013-02-07 06:25:00,
2013-02-07 00:26:00,39.7,10.1,29.41,ESE,112,7.6,7.6,29,0.00,,,0.00,VWS V13.01,2013-02-07 06:26:00,
2013-02-07 00:27:00,39.7,10.1,29.41,SE,135,5.8,7.6,29,0.00,,,0.00,VWS V13.01,2013-02-07 06:27:00,
2013-02-07 00:28:00,39.7,10.1,29.41,East,90,4.9,5.8,29,0.00,,,0.00,VWS V13.01,2013-02-07 06:28:00,
2013-02-07 00:29:00,39.7,10.1,29.41,SE,135,4.0,6.3,29,0.00,,,0.00,VWS V13.01,2013-02-07 06:29:00,
2013-02-07 00:30:00,39.7,10.1,29.41,East,90,2.7,4.0,29,0.00,,,0.00,VWS V13.01,2013-02-07 06:30:00,
2013-02-07 00:31:00,39.7,10.1,29.41,SE,135,4.0,4.9,29,0.00,,,0.00,VWS V13.01,2013-02-07 06:31:00,
2013-02-07 00:32:00,39.7,10.1,29.41,SE,135,3.1,4.5,29,0.00,,,0.00,VWS V13.01,2013-02-07 06:32:00,
2013-02-07 00:33:00,39.7,10.1,29.41,East,90,2.7,2.7,29,0.00,,,0.00,VWS V13.01,2013-02-07 06:33:00,
2013-02-07 00:34:00,39.7,10.1,29.41,SE,135,2.7,3.6,29,0.00,,,0.00,VWS V13.01,2013-02-07 06:34:00,
2013-02-07 00:35:00,39.9,10.3,29.41,East,90,6.3,6.3,29,0.00,,,0.00,VWS V13.01,2013-02-07 06:35:00,
2013-02-07 00:36:00,39.9,10.3,29.41,SE,135,3.6,6.3,29,0.00,,,0.00,VWS V13.01,2013-02-07 06:36:00,
2013-02-07 00:37:00,39.9,10.3,29.41,East,90,3.6,5.4,29,0.00,,,0.00,VWS V13.01,2013-02-07 06:37:00,
2013-02-07 00:38:00,39.9,10.2,29.41,ESE,112,2.7,4.0,29,0.00,,,0.00,VWS V13.01,2013-02-07 06:38:00,
2013-02-07 00:39:00,39.9,10.3,29.41,ESE,112,4.0,4.0,29,0.00,,,0.00,VWS V13.01,2013-02-07 06:39:00,
2013-02-07 00:40:00,39.9,10.3,29.41,East,90,4.9,6.3,29,0.00,,,0.00,VWS V13.01,2013-02-07 06:40:00,
2013-02-07 00:41:00,39.9,10.3,29.41,East,90,4.0,5.4,29,0.00,,,0.00,VWS V13.01,2013-02-07 06:41:00,
2013-02-07 00:42:00,39.9,10.3,29.41,ESE,112,2.7,4.0,29,0.00,,,0.00,VWS V13.01,2013-02-07 06:42:00,
2013-02-07 00:43:00,39.9,10.2,29.41,SE,135,3.1,3.6,29,0.00,,,0.00,VWS V13.01,2013-02-07 06:43:00,
2013-02-07 00:44:00,39.9,10.3,29.41,ESE,112,5.4,5.4,29,0.00,,,0.00,VWS V13.01,2013-02-07 06:44:00,
2013-02-07 00:45:00,39.9,10.3,29.41,East,90,2.7,5.4,29,0.00,,,0.00,VWS V13.01,2013-02-07 06:45:00,
2013-02-07 00:46:00,39.9,10.3,29.41,ESE,112,2.7,3.1,29,0.00,,,0.00,VWS V13.01,2013-02-07 06:46:00,
2013-02-07 00:47:00,39.9,10.3,29.38,ESE,112,2.7,4.0,29,0.00,,,0.00,VWS V13.01,2013-02-07 06:47:00,
2013-02-07 00:48:00,39.9,10.2,29.38,SE,135,2.7,4.0,29,0.00,,,0.00,VWS V13.01,2013-02-07 06:48:00,
2013-02-07 00:49:00,39.9,10.3,29.38,East,90,2.7,4.0,29,0.00,,,0.00,VWS V13.01,2013-02-07 06:49:00,
2013-02-07 00:50:00,39.9,10.3,29.38,SE,135,3.1,5.4,29,0.00,,,0.00,VWS V13.01,2013-02-07 06:50:00,
2013-02-07 00:51:00,39.9,10.3,29.38,East,90,4.0,4.0,29,0.00,,,0.00,VWS V13.01,2013-02-07 06:51:00,
2013-02-07 00:52:00,39.9,10.3,29.38,ESE,112,4.9,4.9,29,0.00,,,0.00,VWS V13.01,2013-02-07 06:52:00,
2013-02-07 00:53:00,39.9,10.2,29.38,East,90,4.5,4.5,29,0.00,,,0.00,VWS V13.01,2013-02-07 06:53:00,
2013-02-07 00:54:00,39.9,10.3,29.38,East,90,5.4,6.3,29,0.00,,,0.00,VWS V13.01,2013-02-07 06:54:00,
2013-02-07 00:55:00,39.7,10.1,29.38,East,90,4.9,5.4,29,0.00,,,0.00,VWS V13.01,2013-02-07 06:55:00,
2013-02-07 00:56:00,39.7,10.1,29.38,ESE,112,4.0,4.9,29,0.00,,,0.00,VWS V13.01,2013-02-07 06:56:00,
2013-02-07 00:57:00,39.7,10.1,29.38,East,90,3.6,4.0,29,0.00,,,0.00,VWS V13.01,2013-02-07 06:57:00,
2013-02-07 00:58:00,39.7,10.1,29.38,East,90,5.8,5.8,29,0.00,,,0.00,VWS V13.01,2013-02-07 06:58:00,
2013-02-07 00:59:00,39.7,10.1,29.38,East,90,3.1,5.8,29,0.00,,,0.00,VWS V13.01,2013-02-07 06:59:00,
2013-02-07 01:00:00,39.7,10.1,29.38,East,90,3.1,4.0,29,0.00,,,0.00,VWS V13.01,2013-02-07 07:00:00,
2013-02-07 01:01:00,39.6,9.9,29.38,East,90,2.7,3.1,29,0.00,,,0.00,VWS V13.01,2013-02-07 07:01:00,
2013-02-07 01:02:00,39.6,9.9,29.38,East,90,3.1,4.0,29,0.00,,,0.00,VWS V13.01,2013-02-07 07:02:00,
2013-02-07 01:03:00,39.4,9.8,29.38,SE,135,0.0,0.0,29,0.00,,,0.00,VWS V13.01,2013-02-07 07:03:00,
2013-02-07 01:04:00,39.4,9.8,29.38,East,90,0.0,0.0,29,0.00,,,0.00,VWS V13.01,2013-02-07 07:04:00,
2013-02-07 01:05:00,39.4,9.8,29.38,East,90,4.9,4.9,29,0.00,,,0.00,VWS V13.01,2013-02-07 07:05:00,
2013-02-07 01:06:00,39.4,9.8,29.38,ESE,112,3.6,4.9,29,0.00,,,0.00,VWS V13.01,2013-02-07 07:06:00,
2013-02-07 01:07:00,39.4,9.8,29.38,ESE,112,4.0,4.0,29,0.00,,,0.00,VWS V13.01,2013-02-07 07:07:00,
2013-02-07 01:08:00,39.4,9.8,29.38,East,90,3.6,4.0,29,0.00,,,0.00,VWS V13.01,2013-02-07 07:08:00,
2013-02-07 01:09:00,39.4,9.8,29.38,SE,135,2.7,4.0,29,0.00,,,0.00,VWS V13.01,2013-02-07 07:09:00,
2013-02-07 01:10:00,39.2,9.6,29.38,East,90,4.0,5.4,29,0.00,,,0.00,VWS V13.01,2013-02-07 07:10:00,
2013-02-07 01:11:00,39.4,9.8,29.38,East,90,5.4,5.4,29,0.00,,,0.00,VWS V13.01,2013-02-07 07:11:00,
2013-02-07 01:12:00,39.2,9.6,29.38,East,90,4.9,5.4,29,0.00,,,0.00,VWS V13.01,2013-02-07 07:12:00,
2013-02-07 01:13:00,39.2,9.6,29.38,ESE,112,2.7,4.0,29,0.00,,,0.00,VWS V13.01,2013-02-07 07:13:00,
2013-02-07 01:14:00,39.2,9.6,29.38,ESE,112,2.7,4.0,29,0.00,,,0.00,VWS V13.01,2013-02-07 07:14:00,
2013-02-07 01:15:00,39.2,9.6,29.38,ESE,112,2.7,3.6,29,0.00,,,0.00,VWS V13.01,2013-02-07 07:15:00,
2013-02-07 01:16:00,39.2,9.6,29.38,East,90,4.9,6.3,29,0.00,,,0.00,VWS V13.01,2013-02-07 07:16:00,
2013-02-07 01:17:00,39.2,9.6,29.38,ESE,112,3.1,5.4,29,0.00,,,0.00,VWS V13.01,2013-02-07 07:17:00,
2013-02-07 01:18:00,39.2,9.6,29.38,ESE,112,2.7,4.0,29,0.00,,,0.00,VWS V13.01,2013-02-07 07:18:00,
2013-02-07 01:19:00,39.2,9.6,29.38,East,90,2.7,4.0,29,0.00,,,0.00,VWS V13.01,2013-02-07 07:19:00,
2013-02-07 01:20:00,39.0,10.2,29.38,East,90,0.0,4.9,30,0.00,,,0.00,VWS V13.01,2013-02-07 07:20:00,
2013-02-07 01:21:00,39.0,10.2,29.38,ESE,112,3.6,3.6,30,0.00,,,0.00,VWS V13.01,2013-02-07 07:21:00,
2013-02-07 01:22:00,38.8,10.1,29.38,East,90,4.0,5.8,30,0.00,,,0.00,VWS V13.01,2013-02-07 07:22:00,
2013-02-07 01:23:00,38.8,10.1,29.38,East,90,4.0,5.8,30,0.00,,,0.00,VWS V13.01,2013-02-07 07:23:00,
2013-02-07 01:24:00,39.0,10.2,29.38,ESE,112,3.6,4.0,30,0.00,,,0.00,VWS V13.01,2013-02-07 07:24:00,
2013-02-07 01:25:00,38.8,10.1,29.38,ESE,112,3.1,4.0,30,0.00,,,0.00,VWS V13.01,2013-02-07 07:25:00,
2013-02-07 01:26:00,38.8,10.1,29.38,SE,135,3.1,3.1,30,0.00,,,0.00,VWS V13.01,2013-02-07 07:26:00,
2013-02-07 01:27:00,38.8,10.1,29.38,East,90,2.7,3.1,30,0.00,,,0.00,VWS V13.01,2013-02-07 07:27:00,
2013-02-07 01:28:00,38.8,10.1,29.38,East,90,3.1,3.1,30,0.00,,,0.00,VWS V13.01,2013-02-07 07:28:00,
2013-02-07 01:29:00,38.8,10.1,29.38,East,90,5.8,5.8,30,0.00,,,0.00,VWS V13.01,2013-02-07 07:29:00,
2013-02-07 01:30:00,38.8,10.1,29.38,SE,135,3.1,5.8,30,0.00,,,0.00,VWS V13.01,2013-02-07 07:30:00,
2013-02-07 01:31:00,38.8,10.1,29.38,East,90,3.6,4.0,30,0.00,,,0.00,VWS V13.01,2013-02-07 07:31:00,
2013-02-07 01:32:00,38.7,9.9,29.38,East,90,5.4,5.4,30,0.00,,,0.00,VWS V13.01,2013-02-07 07:32:00,
2013-02-07 01:33:00,38.7,9.9,29.38,East,90,0.0,5.4,30,0.00,,,0.00,VWS V13.01,2013-02-07 07:33:00,
2013-02-07 01:34:00,38.7,9.9,29.38,ESE,112,0.0,0.0,30,0.00,,,0.00,VWS V13.01,2013-02-07 07:34:00,
2013-02-07 01:35:00,38.7,9.9,29.38,East,90,0.0,0.0,30,0.00,,,0.00,VWS V13.01,2013-02-07 07:35:00,
2013-02-07 01:36:00,38.5,9.8,29.38,East,90,0.0,0.0,30,0.00,,,0.00,VWS V13.01,2013-02-07 07:36:00,
2013-02-07 01:37:00,38.5,9.8,29.38,East,90,0.0,0.0,30,0.00,,,0.00,VWS V13.01,2013-02-07 07:37:00,
2013-02-07 01:38:00,38.5,9.8,29.38,East,90,0.0,0.0,30,0.00,,,0.00,VWS V13.01,2013-02-07 07:38:00,
2013-02-07 01:39:00,38.5,9.8,29.38,East,90,2.7,4.9,30,0.00,,,0.00,VWS V13.01,2013-02-07 07:39:00,
2013-02-07 01:40:00,38.5,9.8,29.38,East,90,2.7,4.0,30,0.00,,,0.00,VWS V13.01,2013-02-07 07:40:00,
2013-02-07 01:41:00,38.5,9.8,29.38,East,90,2.7,3.6,30,0.00,,,0.00,VWS V13.01,2013-02-07 07:41:00,
2013-02-07 01:42:00,38.5,9.8,29.38,East,90,2.7,2.7,30,0.00,,,0.00,VWS V13.01,2013-02-07 07:42:00,
2013-02-07 01:43:00,38.3,9.6,29.38,East,90,2.2,3.1,30,0.00,,,0.00,VWS V13.01,2013-02-07 07:43:00,
2013-02-07 01:44:00,38.3,9.6,29.38,East,90,0.0,2.2,30,0.00,,,0.00,VWS V13.01,2013-02-07 07:44:00,
2013-02-07 01:45:00,38.3,9.6,29.38,East,90,0.0,0.0,30,0.00,,,0.00,VWS V13.01,2013-02-07 07:45:00,
2013-02-07 01:46:00,38.1,9.4,29.38,East,90,0.0,0.0,30,0.00,,,0.00,VWS V13.01,2013-02-07 07:46:00,
2013-02-07 01:47:00,38.1,9.4,29.41,East,90,0.0,0.0,30,0.00,,,0.00,VWS V13.01,2013-02-07 07:47:00,
2013-02-07 01:48:00,38.1,9.4,29.41,East,90,0.0,0.0,30,0.00,,,0.00,VWS V13.01,2013-02-07 07:48:00,
2013-02-07 01:49:00,38.1,9.4,29.41,East,90,0.0,0.0,30,0.00,,,0.00,VWS V13.01,2013-02-07 07:49:00,
2013-02-07 01:50:00,38.1,10.2,29.41,East,90,0.0,0.0,31,0.00,,,0.00,VWS V13.01,2013-02-07 07:50:00,
2013-02-07 01:51:00,38.1,10.2,29.41,East,90,0.0,0.0,31,0.00,,,0.00,VWS V13.01,2013-02-07 07:51:00,
2013-02-07 01:52:00,38.1,10.2,29.41,East,90,0.0,0.0,31,0.00,,,0.00,VWS V13.01,2013-02-07 07:52:00,
2013-02-07 01:53:00,38.1,10.2,29.41,East,90,0.0,0.0,31,0.00,,,0.00,VWS V13.01,2013-02-07 07:53:00,
2013-02-07 01:54:00,37.9,10.0,29.41,East,90,0.0,0.0,31,0.00,,,0.00,VWS V13.01,2013-02-07 07:54:00,
2013-02-07 01:55:00,38.1,10.2,29.41,East,90,0.0,0.0,31,0.00,,,0.00,VWS V13.01,2013-02-07 07:55:00,
2013-02-07 01:56:00,38.1,10.2,29.41,East,90,0.0,0.0,31,0.00,,,0.00,VWS V13.01,2013-02-07 07:56:00,
2013-02-07 01:57:00,38.1,10.2,29.41,East,90,0.0,0.0,31,0.00,,,0.00,VWS V13.01,2013-02-07 07:57:00,
2013-02-07 01:58:00,37.9,10.0,29.41,East,90,0.0,0.0,31,0.00,,,0.00,VWS V13.01,2013-02-07 07:58:00,
2013-02-07 01:59:00,37.9,10.0,29.41,East,90,0.0,0.0,31,0.00,,,0.00,VWS V13.01,2013-02-07 07:59:00,
2013-02-07 02:00:00,37.9,10.0,29.41,East,90,0.0,0.0,31,0.00,,,0.00,VWS V13.01,2013-02-07 08:00:00,
2013-02-07 02:01:00,37.9,10.0,29.41,East,90,0.0,0.0,31,0.00,,,0.00,VWS V13.01,2013-02-07 08:01:00,
2013-02-07 02:02:00,37.9,10.0,29.41,East,90,0.0,0.0,31,0.00,,,0.00,VWS V13.01,2013-02-07 08:02:00,
2013-02-07 02:03:00,37.9,10.0,29.41,East,90,4.0,4.0,31,0.00,,,0.00,VWS V13.01,2013-02-07 08:03:00,
2013-02-07 02:04:00,37.9,10.0,29.41,East,90,4.0,4.0,31,0.00,,,0.00,VWS V13.01,2013-02-07 08:04:00,
2013-02-07 02:05:00,37.9,10.0,29.41,East,90,3.6,4.0,31,0.00,,,0.00,VWS V13.01,2013-02-07 08:05:00,
2013-02-07 02:06:00,37.9,10.0,29.41,ESE,112,4.0,4.9,31,0.00,,,0.00,VWS V13.01,2013-02-07 08:06:00,
2013-02-07 02:07:00,37.9,10.0,29.41,East,90,4.5,5.4,31,0.00,,,0.00,VWS V13.01,2013-02-07 08:07:00,
2013-02-07 02:08:00,37.9,10.0,29.41,East,90,3.6,4.9,31,0.00,,,0.00,VWS V13.01,2013-02-07 08:08:00,
2013-02-07 02:09:00,37.9,10.0,29.41,East,90,4.0,5.4,31,0.00,,,0.00,VWS V13.01,2013-02-07 08:09:00,
2013-02-07 02:10:00,37.9,10.0,29.41,ESE,112,4.0,5.4,31,0.00,,,0.00,VWS V13.01,2013-02-07 08:10:00,
2013-02-07 02:11:00,37.9,10.0,29.41,ESE,112,4.0,4.5,31,0.00,,,0.00,VWS V13.01,2013-02-07 08:11:00,
2013-02-07 02:12:00,37.9,10.0,29.41,ESE,112,3.1,4.0,31,0.00,,,0.00,VWS V13.01,2013-02-07 08:12:00,
2013-02-07 02:13:00,37.9,10.0,29.41,ESE,112,5.8,5.8,31,0.00,,,0.00,VWS V13.01,2013-02-07 08:13:00,
2013-02-07 02:14:00,37.9,10.7,29.41,East,90,4.9,4.9,32,0.00,,,0.00,VWS V13.01,2013-02-07 08:14:00,
2013-02-07 02:15:00,37.9,10.7,29.41,East,90,5.8,6.7,32,0.00,,,0.00,VWS V13.01,2013-02-07 08:15:00,
2013-02-07 02:16:00,37.9,10.7,29.41,SE,135,3.6,5.8,32,0.00,,,0.00,VWS V13.01,2013-02-07 08:16:00,
2013-02-07 02:17:00,37.9,10.7,29.38,East,90,5.4,5.4,32,0.00,,,0.00,VWS V13.01,2013-02-07 08:17:00,
2013-02-07 02:18:00,38.1,10.9,29.38,ESE,112,3.6,5.4,32,0.00,,,0.00,VWS V13.01,2013-02-07 08:18:00,
2013-02-07 02:19:00,38.1,10.9,29.38,East,90,4.9,4.9,32,0.00,,,0.00,VWS V13.01,2013-02-07 08:19:00,
2013-02-07 02:20:00,38.1,10.9,29.38,SE,135,4.0,4.9,32,0.00,,,0.00,VWS V13.01,2013-02-07 08:20:00,
2013-02-07 02:21:00,38.1,10.9,29.38,SE,135,3.1,8.3,32,0.00,,,0.00,VWS V13.01,2013-02-07 08:21:00,
2013-02-07 02:22:00,38.1,10.9,29.38,East,90,3.6,3.6,32,0.00,,,0.00,VWS V13.01,2013-02-07 08:22:00,
2013-02-07 02:23:00,38.1,10.9,29.38,ESE,112,4.0,5.8,32,0.00,,,0.00,VWS V13.01,2013-02-07 08:23:00,
2013-02-07 02:24:00,38.5,10.5,29.38,ESE,112,5.8,5.8,31,0.00,,,0.00,VWS V13.01,2013-02-07 08:24:00,
2013-02-07 02:25:00,38.5,10.5,29.38,ESE,112,3.6,6.3,31,0.00,,,0.00,VWS V13.01,2013-02-07 08:25:00,
2013-02-07 02:26:00,38.5,10.5,29.38,SE,135,5.4,5.4,31,0.00,,,0.00,VWS V13.01,2013-02-07 08:26:00,
2013-02-07 02:27:00,38.5,10.5,29.38,East,90,6.7,6.7,31,0.00,,,0.00,VWS V13.01,2013-02-07 08:27:00,
2013-02-07 02:28:00,38.5,10.5,29.38,SE,135,3.6,6.7,31,0.00,,,0.00,VWS V13.01,2013-02-07 08:28:00,
2013-02-07 02:29:00,38.7,10.6,29.38,SE,135,6.3,6.3,31,0.00,,,0.00,VWS V13.01,2013-02-07 08:29:00,
2013-02-07 02:30:00,38.7,10.6,29.38,East,90,4.9,6.3,31,0.00,,,0.00,VWS V13.01,2013-02-07 08:30:00,
2013-02-07 02:31:00,38.7,10.6,29.38,SE,135,3.1,6.3,31,0.00,,,0.00,VWS V13.01,2013-02-07 08:31:00,
2013-02-07 02:32:00,38.7,10.6,29.38,East,90,3.1,5.4,31,0.00,,,0.00,VWS V13.01,2013-02-07 08:32:00,
2013-02-07 02:33:00,38.7,10.6,29.38,SE,135,3.6,6.3,31,0.00,,,0.00,VWS V13.01,2013-02-07 08:33:00,
2013-02-07 02:34:00,38.7,10.6,29.38,SE,135,3.6,6.3,31,0.00,,,0.00,VWS V13.01,2013-02-07 08:34:00,
2013-02-07 02:35:00,38.7,10.6,29.38,SE,135,5.4,7.2,31,0.00,,,0.00,VWS V13.01,2013-02-07 08:35:00,
2013-02-07 02:36:00,38.7,10.6,29.38,East,90,6.7,6.7,31,0.00,,,0.00,VWS V13.01,2013-02-07 08:36:00,
2013-02-07 02:37:00,38.7,10.6,29.38,SE,135,4.0,6.7,31,0.00,,,0.00,VWS V13.01,2013-02-07 08:37:00,
2013-02-07 02:38:00,38.7,10.6,29.38,East,90,4.0,5.8,31,0.00,,,0.00,VWS V13.01,2013-02-07 08:38:00,
2013-02-07 02:39:00,38.8,10.8,29.38,SE,135,6.7,6.7,31,0.00,,,0.00,VWS V13.01,2013-02-07 08:39:00,
2013-02-07 02:40:00,38.8,10.8,29.38,ESE,112,4.0,6.7,31,0.00,,,0.00,VWS V13.01,2013-02-07 08:40:00,
2013-02-07 02:41:00,38.8,10.8,29.38,SE,135,4.9,8.1,31,0.00,,,0.00,VWS V13.01,2013-02-07 08:41:00,
2013-02-07 02:42:00,38.8,10.8,29.38,SE,135,3.1,6.3,31,0.00,,,0.00,VWS V13.01,2013-02-07 08:42:00,
2013-02-07 02:43:00,38.8,10.8,29.38,SE,135,4.0,4.9,31,0.00,,,0.00,VWS V13.01,2013-02-07 08:43:00,
2013-02-07 02:44:00,38.7,10.6,29.38,SE,135,3.6,3.6,31,0.00,,,0.00,VWS V13.01,2013-02-07 08:44:00,
2013-02-07 02:45:00,38.7,10.6,29.38,SE,135,5.8,5.8,31,0.00,,,0.00,VWS V13.01,2013-02-07 08:45:00,
2013-02-07 02:46:00,38.7,10.6,29.38,SE,135,8.3,8.3,31,0.00,,,0.00,VWS V13.01,2013-02-07 08:46:00,
2013-02-07 02:47:00,38.7,10.6,29.38,East,90,7.6,8.3,31,0.00,,,0.00,VWS V13.01,2013-02-07 08:47:00,
2013-02-07 02:48:00,38.7,10.6,29.38,SE,135,6.3,7.6,31,0.00,,,0.00,VWS V13.01,2013-02-07 08:48:00,
2013-02-07 02:49:00,38.7,10.6,29.38,ESE,112,8.7,8.7,31,0.00,,,0.00,VWS V13.01,2013-02-07 08:49:00,
2013-02-07 02:50:00,38.7,10.6,29.38,ESE,112,6.3,8.7,31,0.00,,,0.00,VWS V13.01,2013-02-07 08:50:00,
2013-02-07 02:51:00,38.7,10.6,29.38,East,90,3.6,6.3,31,0.00,,,0.00,VWS V13.01,2013-02-07 08:51:00,
2013-02-07 02:53:00,38.7,10.6,29.38,ESE,112,4.9,5.4,31,0.00,,,0.00,VWS V13.01,2013-02-07 08:53:00,
2013-02-07 02:54:00,38.7,10.6,29.38,ESE,112,5.8,6.3,31,0.00,,,0.00,VWS V13.01,2013-02-07 08:54:00,
2013-02-07 02:56:00,38.7,10.6,29.38,SE,135,5.8,8.1,31,0.00,,,0.00,VWS V13.01,2013-02-07 08:56:00,
2013-02-07 02:57:00,38.7,10.6,29.38,SE,135,3.1,5.8,31,0.00,,,0.00,VWS V13.01,2013-02-07 08:57:00,
2013-02-07 02:58:00,38.7,10.6,29.38,SE,135,4.0,4.9,31,0.00,,,0.00,VWS V13.01,2013-02-07 08:58:00,
2013-02-07 02:59:00,38.7,10.6,29.38,East,90,4.0,4.0,31,0.00,,,0.00,VWS V13.01,2013-02-07 08:59:00,
2013-02-07 03:00:00,38.7,10.6,29.38,SE,135,2.2,6.3,31,0.00,,,0.00,VWS V13.01,2013-02-07 09:00:00,
2013-02-07 03:01:00,38.5,10.5,29.35,SE,135,3.6,5.4,31,0.00,,,0.00,VWS V13.01,2013-02-07 09:01:00,
2013-02-07 03:02:00,38.5,10.5,29.35,SE,135,3.1,4.0,31,0.00,,,0.00,VWS V13.01,2013-02-07 09:02:00,
2013-02-07 03:03:00,38.5,10.5,29.35,SE,135,3.1,3.6,31,0.00,,,0.00,VWS V13.01,2013-02-07 09:03:00,
2013-02-07 03:04:00,38.5,10.5,29.35,SE,135,4.0,5.8,31,0.00,,,0.00,VWS V13.01,2013-02-07 09:04:00,
2013-02-07 03:05:00,38.5,10.5,29.35,ESE,112,3.6,5.8,31,0.00,,,0.00,VWS V13.01,2013-02-07 09:05:00,
2013-02-07 03:06:00,38.5,10.5,29.35,SE,135,4.5,5.8,31,0.00,,,0.00,VWS V13.01,2013-02-07 09:06:00,
2013-02-07 03:07:00,38.5,10.5,29.35,East,90,4.5,5.8,31,0.00,,,0.00,VWS V13.01,2013-02-07 09:07:00,
2013-02-07 03:08:00,38.7,10.6,29.35,ESE,112,3.6,4.5,31,0.00,,,0.00,VWS V13.01,2013-02-07 09:08:00,
2013-02-07 03:09:00,38.7,10.6,29.35,SE,135,3.6,5.4,31,0.00,,,0.00,VWS V13.01,2013-02-07 09:09:00,
2013-02-07 03:10:00,38.7,10.6,29.35,ESE,112,4.0,4.9,31,0.00,,,0.00,VWS V13.01,2013-02-07 09:10:00,
2013-02-07 03:11:00,38.7,10.6,29.35,SE,135,4.5,5.8,31,0.00,,,0.00,VWS V13.01,2013-02-07 09:11:00,
2013-02-07 03:12:00,38.7,10.6,29.35,SE,135,2.7,5.8,31,0.00,,,0.00,VWS V13.01,2013-02-07 09:12:00,
2013-02-07 03:13:00,38.7,10.6,29.35,SE,135,5.4,5.4,31,0.00,,,0.00,VWS V13.01,2013-02-07 09:13:00,
2013-02-07 03:14:00,38.7,10.6,29.35,East,90,4.0,5.4,31,0.00,,,0.00,VWS V13.01,2013-02-07 09:14:00,
2013-02-07 03:15:00,38.8,10.8,29.35,ESE,112,3.1,8.3,31,0.00,,,0.00,VWS V13.01,2013-02-07 09:15:00,
2013-02-07 03:16:00,38.8,10.8,29.35,SE,135,4.5,4.9,31,0.00,,,0.00,VWS V13.01,2013-02-07 09:16:00,
2013-02-07 03:17:00,38.8,10.1,29.35,SE,135,5.4,5.4,30,0.00,,,0.00,VWS V13.01,2013-02-07 09:17:00,
2013-02-07 03:18:00,38.7,9.9,29.35,ESE,112,2.7,5.4,30,0.00,,,0.00,VWS V13.01,2013-02-07 09:18:00,
2013-02-07 03:19:00,38.7,9.9,29.35,ESE,112,5.8,5.8,30,0.00,,,0.00,VWS V13.01,2013-02-07 09:19:00,
2013-02-07 03:20:00,38.7,9.9,29.35,SE,135,4.5,4.5,30,0.00,,,0.00,VWS V13.01,2013-02-07 09:20:00,
2013-02-07 03:21:00,38.7,9.9,29.35,SE,135,6.3,6.3,30,0.00,,,0.00,VWS V13.01,2013-02-07 09:21:00,
2013-02-07 03:22:00,38.8,10.1,29.35,SE,135,2.7,7.2,30,0.00,,,0.00,VWS V13.01,2013-02-07 09:22:00,
2013-02-07 03:23:00,38.8,10.1,29.35,ESE,112,4.0,4.0,30,0.00,,,0.00,VWS V13.01,2013-02-07 09:23:00,
2013-02-07 03:24:00,38.8,10.1,29.35,East,90,2.7,4.0,30,0.00,,,0.00,VWS V13.01,2013-02-07 09:24:00,
2013-02-07 03:25:00,38.8,10.1,29.35,SE,135,4.0,4.0,30,0.00,,,0.00,VWS V13.01,2013-02-07 09:25:00,
2013-02-07 03:26:00,38.8,10.1,29.35,SE,135,4.0,4.0,30,0.00,,,0.00,VWS V13.01,2013-02-07 09:26:00,
2013-02-07 03:27:00,38.8,10.1,29.35,ESE,112,3.6,6.3,30,0.00,,,0.00,VWS V13.01,2013-02-07 09:27:00,
2013-02-07 03:28:00,38.8,10.1,29.35,ESE,112,2.7,5.4,30,0.00,,,0.00,VWS V13.01,2013-02-07 09:28:00,
2013-02-07 03:29:00,38.8,10.1,29.35,SE,135,2.7,4.9,30,0.00,,,0.00,VWS V13.01,2013-02-07 09:29:00,
2013-02-07 03:30:00,38.8,10.1,29.35,SE,135,4.0,6.3,30,0.00,,,0.00,VWS V13.01,2013-02-07 09:30:00,
2013-02-07 03:31:00,38.8,10.1,29.35,East,90,3.6,6.3,30,0.00,,,0.00,VWS V13.01,2013-02-07 09:31:00,
2013-02-07 03:32:00,38.8,10.1,29.35,East,90,3.1,3.6,30,0.00,,,0.00,VWS V13.01,2013-02-07 09:32:00,
2013-02-07 03:33:00,38.8,10.1,29.35,East,90,4.9,4.9,30,0.00,,,0.00,VWS V13.01,2013-02-07 09:33:00,
2013-02-07 03:34:00,38.8,10.1,29.35,SE,135,4.0,4.9,30,0.00,,,0.00,VWS V13.01,2013-02-07 09:34:00,
2013-02-07 03:35:00,38.8,10.1,29.35,SE,135,4.0,4.0,30,0.00,,,0.00,VWS V13.01,2013-02-07 09:35:00,
2013-02-07 03:36:00,38.8,10.1,29.35,SE,135,4.0,4.0,30,0.00,,,0.00,VWS V13.01,2013-02-07 09:36:00,
2013-02-07 03:37:00,38.8,10.1,29.35,East,90,3.6,4.5,30,0.00,,,0.00,VWS V13.01,2013-02-07 09:37:00,
2013-02-07 03:38:00,39.0,10.2,29.35,East,90,3.6,4.9,30,0.00,,,0.00,VWS V13.01,2013-02-07 09:38:00,
2013-02-07 03:39:00,39.0,10.2,29.35,SE,135,3.6,3.6,30,0.00,,,0.00,VWS V13.01,2013-02-07 09:39:00,
2013-02-07 03:40:00,38.8,10.1,29.35,SE,135,4.0,7.2,30,0.00,,,0.00,VWS V13.01,2013-02-07 09:40:00,
2013-02-07 03:41:00,38.8,10.1,29.35,SE,135,4.0,7.2,30,0.00,,,0.00,VWS V13.01,2013-02-07 09:41:00,
2013-02-07 03:42:00,38.8,10.1,29.35,SE,135,5.8,6.3,30,0.00,,,0.00,VWS V13.01,2013-02-07 09:42:00,
2013-02-07 03:43:00,39.0,10.2,29.35,SE,135,7.6,7.6,30,0.00,,,0.00,VWS V13.01,2013-02-07 09:43:00,
2013-02-07 03:44:00,39.0,10.2,29.35,SE,135,3.6,7.6,30,0.00,,,0.00,VWS V13.01,2013-02-07 09:44:00,
2013-02-07 03:45:00,39.2,9.6,29.35,SE,135,4.0,4.9,29,0.00,,,0.00,VWS V13.01,2013-02-07 09:45:00,
2013-02-07 03:46:00,39.2,9.6,29.35,SE,135,5.4,5.4,29,0.00,,,0.00,VWS V13.01,2013-02-07 09:46:00,
2013-02-07 03:47:00,39.2,9.6,29.35,East,90,4.0,5.4,29,0.00,,,0.00,VWS V13.01,2013-02-07 09:47:00,
2013-02-07 03:48:00,39.2,9.6,29.35,ESE,112,9.6,9.6,29,0.00,,,0.00,VWS V13.01,2013-02-07 09:48:00,
2013-02-07 03:49:00,39.2,9.6,29.35,SE,135,3.1,9.6,29,0.00,,,0.00,VWS V13.01,2013-02-07 09:49:00,
2013-02-07 03:50:00,39.2,9.6,29.35,SE,135,3.1,4.0,29,0.00,,,0.00,VWS V13.01,2013-02-07 09:50:00,
2013-02-07 03:51:00,39.2,9.6,29.35,East,90,4.9,4.9,29,0.00,,,0.00,VWS V13.01,2013-02-07 09:51:00,
2013-02-07 03:52:00,39.4,9.8,29.35,SE,135,4.9,7.6,29,0.00,,,0.00,VWS V13.01,2013-02-07 09:52:00,
2013-02-07 03:53:00,39.2,9.6,29.35,SE,135,3.6,4.9,29,0.00,,,0.00,VWS V13.01,2013-02-07 09:53:00,
2013-02-07 03:54:00,39.2,9.6,29.35,East,90,3.1,3.6,29,0.00,,,0.00,VWS V13.01,2013-02-07 09:54:00,
2013-02-07 03:55:00,39.2,9.6,29.35,SE,135,4.0,4.0,29,0.00,,,0.00,VWS V13.01,2013-02-07 09:55:00,
2013-02-07 03:56:00,39.2,9.6,29.35,ESE,112,3.6,5.4,29,0.00,,,0.00,VWS V13.01,2013-02-07 09:56:00,
2013-02-07 03:57:00,39.2,9.6,29.35,East,90,3.6,5.4,29,0.00,,,0.00,VWS V13.01,2013-02-07 09:57:00,
2013-02-07 03:58:00,39.2,9.6,29.35,SE,135,3.6,3.6,29,0.00,,,0.00,VWS V13.01,2013-02-07 09:58:00,
2013-02-07 03:59:00,39.2,9.6,29.35,East,90,3.1,3.6,29,0.00,,,0.00,VWS V13.01,2013-02-07 09:59:00,
2013-02-07 04:00:00,39.2,9.6,29.35,SE,135,3.1,3.1,29,0.00,,,0.00,VWS V13.01,2013-02-07 10:00:00,
2013-02-07 04:01:00,39.2,9.6,29.35,SE,135,2.7,3.1,29,0.00,,,0.00,VWS V13.01,2013-02-07 10:01:00,
2013-02-07 04:02:00,39.2,9.6,29.35,SE,135,5.8,5.8,29,0.00,,,0.00,VWS V13.01,2013-02-07 10:02:00,
2013-02-07 04:03:00,39.2,9.6,29.35,ESE,112,2.7,5.8,29,0.00,,,0.00,VWS V13.01,2013-02-07 10:03:00,
2013-02-07 04:04:00,39.2,9.6,29.35,SE,135,4.9,4.9,29,0.00,,,0.00,VWS V13.01,2013-02-07 10:04:00,
2013-02-07 04:05:00,39.2,9.6,29.35,East,90,3.6,4.0,29,0.00,,,0.00,VWS V13.01,2013-02-07 10:05:00,
2013-02-07 04:06:00,39.2,9.6,29.35,ESE,112,2.7,4.0,29,0.00,,,0.00,VWS V13.01,2013-02-07 10:06:00,
2013-02-07 04:07:00,39.4,9.8,29.35,SE,135,3.1,4.0,29,0.00,,,0.00,VWS V13.01,2013-02-07 10:07:00,
2013-02-07 04:08:00,39.4,9.8,29.35,SE,135,4.0,4.0,29,0.00,,,0.00,VWS V13.01,2013-02-07 10:08:00,
2013-02-07 04:09:00,39.4,9.8,29.35,East,90,4.0,8.1,29,0.00,,,0.00,VWS V13.01,2013-02-07 10:09:00,
2013-02-07 04:10:00,39.4,9.8,29.35,East,90,4.9,5.8,29,0.00,,,0.00,VWS V13.01,2013-02-07 10:10:00,
2013-02-07 04:11:00,39.4,9.8,29.35,ESE,112,3.6,4.9,29,0.00,,,0.00,VWS V13.01,2013-02-07 10:11:00,
2013-02-07 04:12:00,39.4,9.8,29.35,SE,135,3.1,4.0,29,0.00,,,0.00,VWS V13.01,2013-02-07 10:12:00,
2013-02-07 04:13:00,39.6,9.9,29.35,SE,135,3.1,5.8,29,0.00,,,0.00,VWS V13.01,2013-02-07 10:13:00,
2013-02-07 04:14:00,39.6,9.9,29.35,East,90,4.0,4.0,29,0.00,,,0.00,VWS V13.01,2013-02-07 10:14:00,
2013-02-07 04:15:00,39.6,9.9,29.35,East,90,2.7,4.0,29,0.00,,,0.00,VWS V13.01,2013-02-07 10:15:00,
2013-02-07 04:16:00,39.6,9.9,29.35,SE,135,4.0,5.4,29,0.00,,,0.00,VWS V13.01,2013-02-07 10:16:00,
2013-02-07 04:17:00,39.7,10.1,29.35,ESE,112,4.0,4.9,29,0.00,,,0.00,VWS V13.01,2013-02-07 10:17:00,
2013-02-07 04:18:00,39.7,10.1,29.35,East,90,3.6,6.3,29,0.00,,,0.00,VWS V13.01,2013-02-07 10:18:00,
2013-02-07 04:19:00,39.7,10.1,29.35,SE,135,4.0,4.9,29,0.00,,,0.00,VWS V13.01,2013-02-07 10:19:00,
2013-02-07 04:20:00,39.7,10.1,29.35,East,90,4.0,7.6,29,0.00,,,0.00,VWS V13.01,2013-02-07 10:20:00,
2013-02-07 04:21:00,39.7,10.1,29.35,East,90,3.6,3.6,29,0.00,,,0.00,VWS V13.01,2013-02-07 10:21:00,
2013-02-07 04:22:00,39.7,10.1,29.35,SE,135,3.6,3.6,29,0.00,,,0.00,VWS V13.01,2013-02-07 10:22:00,
2013-02-07 04:23:00,39.7,10.1,29.35,ESE,112,4.9,4.9,29,0.00,,,0.00,VWS V13.01,2013-02-07 10:23:00,
2013-02-07 04:24:00,39.7,10.1,29.35,SE,135,0.0,8.1,29,0.00,,,0.00,VWS V13.01,2013-02-07 10:24:00,
2013-02-07 04:25:00,39.9,10.3,29.35,SE,135,3.1,5.8,29,0.00,,,0.00,VWS V13.01,2013-02-07 10:25:00,
2013-02-07 04:26:00,39.9,10.2,29.35,SE,135,3.1,3.1,29,0.00,,,0.00,VWS V13.01,2013-02-07 10:26:00,
2013-02-07 04:27:00,39.9,10.3,29.35,ESE,112,5.4,5.4,29,0.00,,,0.00,VWS V13.01,2013-02-07 10:27:00,
2013-02-07 04:28:00,39.9,10.3,29.35,ESE,112,6.3,8.1,29,0.00,,,0.00,VWS V13.01,2013-02-07 10:28:00,
2013-02-07 04:29:00,39.9,10.3,29.35,SE,135,4.0,6.3,29,0.00,,,0.00,VWS V13.01,2013-02-07 10:29:00,
2013-02-07 04:30:00,40.1,10.4,29.35,SE,135,2.7,6.3,29,0.00,,,0.00,VWS V13.01,2013-02-07 10:30:00,
2013-02-07 04:31:00,40.1,10.4,29.32,SE,135,3.6,3.6,29,0.00,,,0.00,VWS V13.01,2013-02-07 10:31:00,
2013-02-07 04:32:00,40.1,10.4,29.32,SE,135,5.4,5.8,29,0.00,,,0.00,VWS V13.01,2013-02-07 10:32:00,
2013-02-07 04:33:00,40.1,10.4,29.32,SE,135,3.6,5.4,29,0.00,,,0.00,VWS V13.01,2013-02-07 10:33:00,
2013-02-07 04:34:00,40.1,10.4,29.32,SE,135,4.0,4.0,29,0.00,,,0.00,VWS V13.01,2013-02-07 10:34:00,
2013-02-07 04:35:00,40.1,10.4,29.32,ESE,112,0.0,4.0,29,0.00,,,0.00,VWS V13.01,2013-02-07 10:35:00,
2013-02-07 04:36:00,40.1,10.4,29.32,SE,135,5.4,5.4,29,0.00,,,0.00,VWS V13.01,2013-02-07 10:36:00,
2013-02-07 04:37:00,40.1,10.4,29.32,SE,135,4.0,5.4,29,0.00,,,0.00,VWS V13.01,2013-02-07 10:37:00,
2013-02-07 04:38:00,40.3,10.6,29.32,ESE,112,2.2,4.0,29,0.00,,,0.00,VWS V13.01,2013-02-07 10:38:00,
2013-02-07 04:39:00,40.3,10.6,29.32,SE,135,2.7,2.7,29,0.00,,,0.00,VWS V13.01,2013-02-07 10:39:00,
2013-02-07 04:40:00,40.3,10.6,29.32,SE,135,4.0,4.0,29,0.00,,,0.00,VWS V13.01,2013-02-07 10:40:00,
2013-02-07 04:41:00,40.3,10.6,29.32,SE,135,4.0,4.0,29,0.00,,,0.00,VWS V13.01,2013-02-07 10:41:00,
2013-02-07 04:42:00,40.3,10.6,29.32,SSE,158,4.5,4.5,29,0.00,,,0.00,VWS V13.01,2013-02-07 10:42:00,
2013-02-07 04:43:00,40.3,10.6,29.32,SE,135,4.0,5.4,29,0.00,,,0.00,VWS V13.01,2013-02-07 10:43:00,
2013-02-07 04:44:00,40.3,10.6,29.32,SE,135,4.0,4.0,29,0.00,,,0.00,VWS V13.01,2013-02-07 10:44:00,
2013-02-07 04:45:00,40.5,10.7,29.32,SE,135,5.8,5.8,29,0.00,,,0.00,VWS V13.01,2013-02-07 10:45:00,
2013-02-07 04:46:00,40.5,10.7,29.35,SE,135,3.6,4.9,29,0.00,,,0.00,VWS V13.01,2013-02-07 10:46:00,
2013-02-07 04:47:00,40.5,10.7,29.35,SE,135,2.2,4.9,29,0.00,,,0.00,VWS V13.01,2013-02-07 10:47:00,
2013-02-07 04:48:00,40.5,10.7,29.35,SE,135,3.1,3.1,29,0.00,,,0.00,VWS V13.01,2013-02-07 10:48:00,
2013-02-07 04:49:00,40.5,10.7,29.35,SE,135,0.0,3.1,29,0.00,,,0.00,VWS V13.01,2013-02-07 10:49:00,
2013-02-07 04:50:00,40.5,10.7,29.35,SE,135,3.6,3.6,29,0.00,,,0.00,VWS V13.01,2013-02-07 10:50:00,
2013-02-07 04:51:00,40.5,10.7,29.35,SE,135,3.1,4.0,29,0.00,,,0.00,VWS V13.01,2013-02-07 10:51:00,
2013-02-07 04:52:00,40.5,10.7,29.35,SE,135,0.0,4.0,29,0.00,,,0.00,VWS V13.01,2013-02-07 10:52:00,
2013-02-07 04:53:00,40.5,10.7,29.35,SE,135,0.0,0.0,29,0.00,,,0.00,VWS V13.01,2013-02-07 10:53:00,
2013-02-07 04:54:00,40.5,10.7,29.35,East,90,0.0,0.0,29,0.00,,,0.00,VWS V13.01,2013-02-07 10:54:00,
2013-02-07 04:55:00,40.5,10.7,29.35,SE,135,2.2,3.1,29,0.00,,,0.00,VWS V13.01,2013-02-07 10:55:00,
2013-02-07 04:56:00,40.5,10.7,29.35,ESE,112,0.0,2.7,29,0.00,,,0.00,VWS V13.01,2013-02-07 10:56:00,
2013-02-07 04:57:00,40.5,10.7,29.35,SE,135,3.1,4.0,29,0.00,,,0.00,VWS V13.01,2013-02-07 10:57:00,
2013-02-07 04:58:00,40.5,9.9,29.35,SE,135,0.0,3.1,28,0.00,,,0.00,VWS V13.01,2013-02-07 10:58:00,
2013-02-07 04:59:00,40.5,10.7,29.35,East,90,3.6,3.6,29,0.00,,,0.00,VWS V13.01,2013-02-07 10:59:00,
2013-02-07 05:00:00,40.5,10.7,29.35,ESE,112,0.0,3.6,29,0.00,,,0.00,VWS V13.01,2013-02-07 11:00:00,
2013-02-07 05:01:00,40.5,10.7,29.35,ESE,112,0.0,2.7,29,0.00,,,0.00,VWS V13.01,2013-02-07 11:01:00,
2013-02-07 05:02:00,40.5,10.7,29.35,ESE,112,0.0,0.0,29,0.00,,,0.00,VWS V13.01,2013-02-07 11:02:00,
2013-02-07 05:03:00,40.5,10.7,29.35,East,90,0.0,0.0,29,0.00,,,0.00,VWS V13.01,2013-02-07 11:03:00,
2013-02-07 05:04:00,40.5,10.7,29.35,SE,135,0.0,0.0,29,0.00,,,0.00,VWS V13.01,2013-02-07 11:04:00,
2013-02-07 05:05:00,40.5,10.7,29.35,SE,135,0.0,0.0,29,0.00,,,0.00,VWS V13.01,2013-02-07 11:05:00,
2013-02-07 05:06:00,40.5,10.7,29.35,SE,135,2.7,2.7,29,0.00,,,0.00,VWS V13.01,2013-02-07 11:06:00,
2013-02-07 05:07:00,40.5,10.7,29.35,SE,135,0.0,2.7,29,0.00,,,0.00,VWS V13.01,2013-02-07 11:07:00,
2013-02-07 05:08:00,40.5,9.9,29.35,SE,135,0.0,2.2,28,0.00,,,0.00,VWS V13.01,2013-02-07 11:08:00,
2013-02-07 05:09:00,40.5,9.9,29.35,East,90,2.7,4.0,28,0.00,,,0.00,VWS V13.01,2013-02-07 11:09:00,
2013-02-07 05:10:00,40.5,9.9,29.35,ESE,112,4.0,4.0,28,0.00,,,0.00,VWS V13.01,2013-02-07 11:10:00,
2013-02-07 05:11:00,40.5,9.9,29.35,SE,135,2.7,4.0,28,0.00,,,0.00,VWS V13.01,2013-02-07 11:11:00,
2013-02-07 05:12:00,40.5,9.9,29.35,ESE,112,3.6,3.6,28,0.00,,,0.00,VWS V13.01,2013-02-07 11:12:00,
2013-02-07 05:13:00,40.5,9.9,29.35,SE,135,0.0,3.6,28,0.00,,,0.00,VWS V13.01,2013-02-07 11:13:00,
2013-02-07 05:14:00,40.5,9.9,29.35,SE,135,3.1,3.1,28,0.00,,,0.00,VWS V13.01,2013-02-07 11:14:00,
2013-02-07 05:15:00,40.5,9.9,29.35,SE,135,0.0,3.1,28,0.00,,,0.00,VWS V13.01,2013-02-07 11:15:00,
2013-02-07 05:16:00,40.5,9.9,29.35,SE,135,3.6,3.6,28,0.00,,,0.00,VWS V13.01,2013-02-07 11:16:00,
2013-02-07 05:17:00,40.5,9.9,29.35,ESE,112,3.1,3.1,28,0.00,,,0.00,VWS V13.01,2013-02-07 11:17:00,
2013-02-07 05:18:00,40.5,9.9,29.35,East,90,3.1,3.6,28,0.00,,,0.00,VWS V13.01,2013-02-07 11:18:00,
2013-02-07 05:19:00,40.3,9.8,29.35,SE,135,3.6,3.6,28,0.00,,,0.00,VWS V13.01,2013-02-07 11:19:00,
2013-02-07 05:20:00,40.3,9.8,29.35,SE,135,3.6,5.4,28,0.00,,,0.00,VWS V13.01,2013-02-07 11:20:00,
2013-02-07 05:21:00,40.3,9.8,29.35,East,90,0.0,3.6,28,0.00,,,0.00,VWS V13.01,2013-02-07 11:21:00,
2013-02-07 05:22:00,40.3,9.8,29.35,SE,135,0.0,0.0,28,0.00,,,0.00,VWS V13.01,2013-02-07 11:22:00,
2013-02-07 05:23:00,40.3,9.8,29.35,ESE,112,0.0,0.0,28,0.00,,,0.00,VWS V13.01,2013-02-07 11:23:00,
2013-02-07 05:24:00,40.3,10.6,29.35,ESE,112,0.0,0.0,29,0.00,,,0.00,VWS V13.01,2013-02-07 11:24:00,
2013-02-07 05:25:00,40.3,10.6,29.35,SE,135,0.0,3.6,29,0.00,,,0.00,VWS V13.01,2013-02-07 11:25:00,
2013-02-07 05:26:00,40.3,10.6,29.35,East,90,2.7,3.6,29,0.00,,,0.00,VWS V13.01,2013-02-07 11:26:00,
2013-02-07 05:27:00,40.1,10.4,29.35,East,90,2.7,2.7,29,0.00,,,0.00,VWS V13.01,2013-02-07 11:27:00,
2013-02-07 05:28:00,40.1,10.4,29.35,East,90,3.6,4.5,29,0.00,,,0.00,VWS V13.01,2013-02-07 11:28:00,
2013-02-07 05:29:00,40.1,10.4,29.35,East,90,0.0,3.6,29,0.00,,,0.00,VWS V13.01,2013-02-07 11:29:00,
2013-02-07 05:30:00,40.1,10.4,29.35,SE,135,0.0,0.0,29,0.00,,,0.00,VWS V13.01,2013-02-07 11:30:00,
2013-02-07 05:31:00,40.1,10.4,29.35,East,90,4.5,4.5,29,0.00,,,0.00,VWS V13.01,2013-02-07 11:31:00,
2013-02-07 05:32:00,40.1,10.4,29.32,East,90,0.0,0.0,29,0.00,,,0.00,VWS V13.01,2013-02-07 11:32:00,
2013-02-07 05:33:00,40.1,10.4,29.32,SE,135,0.0,2.7,29,0.00,,,0.00,VWS V13.01,2013-02-07 11:33:00,
2013-02-07 05:34:00,40.1,10.4,29.32,East,90,0.0,0.0,29,0.00,,,0.00,VWS V13.01,2013-02-07 11:34:00,
2013-02-07 05:35:00,40.1,10.4,29.32,SE,135,0.0,0.0,29,0.00,,,0.00,VWS V13.01,2013-02-07 11:35:00,
2013-02-07 05:36:00,40.1,10.4,29.32,SE,135,0.0,0.0,29,0.00,,,0.00,VWS V13.01,2013-02-07 11:36:00,
2013-02-07 05:37:00,40.1,10.4,29.32,SE,135,0.0,0.0,29,0.00,,,0.00,VWS V13.01,2013-02-07 11:37:00,
2013-02-07 05:38:00,40.1,10.4,29.32,SE,135,0.0,2.7,29,0.00,,,0.00,VWS V13.01,2013-02-07 11:38:00,
2013-02-07 05:39:00,40.1,10.4,29.32,SE,135,0.0,0.0,29,0.00,,,0.00,VWS V13.01,2013-02-07 11:39:00,
2013-02-07 05:40:00,40.1,10.4,29.32,SE,135,3.1,3.1,29,0.00,,,0.00,VWS V13.01,2013-02-07 11:40:00,
2013-02-07 05:41:00,40.1,10.4,29.32,SE,135,2.7,3.6,29,0.00,,,0.00,VWS V13.01,2013-02-07 11:41:00,
2013-02-07 05:42:00,40.1,9.6,29.32,ESE,112,0.0,3.1,28,0.00,,,0.00,VWS V13.01,2013-02-07 11:42:00,
2013-02-07 05:43:00,40.1,9.6,29.32,East,90,2.7,3.1,28,0.00,,,0.00,VWS V13.01,2013-02-07 11:43:00,
2013-02-07 05:44:00,40.3,9.8,29.32,East,90,0.0,3.6,28,0.00,,,0.00,VWS V13.01,2013-02-07 11:44:00,
2013-02-07 05:45:00,40.3,9.8,29.32,East,90,0.0,3.6,28,0.00,,,0.00,VWS V13.01,2013-02-07 11:45:00,
2013-02-07 05:46:00,40.3,9.8,29.32,East,90,0.0,0.0,28,0.00,,,0.00,VWS V13.01,2013-02-07 11:46:00,
2013-02-07 05:47:00,40.3,9.8,29.32,East,90,0.0,0.0,28,0.00,,,0.00,VWS V13.01,2013-02-07 11:47:00,
2013-02-07 05:48:00,40.3,9.8,29.32,East,90,0.0,0.0,28,0.00,,,0.00,VWS V13.01,2013-02-07 11:48:00,
2013-02-07 05:49:00,40.3,9.8,29.32,East,90,0.0,0.0,28,0.00,,,0.00,VWS V13.01,2013-02-07 11:49:00,
2013-02-07 05:50:00,40.3,9.8,29.32,East,90,0.0,0.0,28,0.00,,,0.00,VWS V13.01,2013-02-07 11:50:00,
2013-02-07 05:51:00,40.3,9.8,29.32,East,90,0.0,0.0,28,0.00,,,0.00,VWS V13.01,2013-02-07 11:51:00,
2013-02-07 05:52:00,40.1,9.6,29.32,East,90,0.0,0.0,28,0.00,,,0.00,VWS V13.01,2013-02-07 11:52:00,
2013-02-07 05:53:00,40.1,9.6,29.32,East,90,0.0,0.0,28,0.00,,,0.00,VWS V13.01,2013-02-07 11:53:00,
2013-02-07 05:54:00,40.1,9.6,29.32,NE,45,0.0,0.0,28,0.00,,,0.00,VWS V13.01,2013-02-07 11:54:00,
2013-02-07 05:55:00,39.9,10.3,29.32,NE,45,0.0,0.0,29,0.00,,,0.00,VWS V13.01,2013-02-07 11:55:00,
2013-02-07 05:56:00,39.9,10.3,29.32,NE,45,0.0,0.0,29,0.00,,,0.00,VWS V13.01,2013-02-07 11:56:00,
2013-02-07 05:57:00,39.7,10.1,29.32,NE,45,0.0,0.0,29,0.00,,,0.00,VWS V13.01,2013-02-07 11:57:00,
2013-02-07 05:58:00,39.7,10.1,29.32,NE,45,0.0,0.0,29,0.00,,,0.00,VWS V13.01,2013-02-07 11:58:00,
2013-02-07 05:59:00,39.7,10.1,29.32,NE,45,0.0,0.0,29,0.00,,,0.00,VWS V13.01,2013-02-07 11:59:00,
2013-02-07 06:00:00,39.7,10.1,29.32,NE,45,0.0,0.0,29,0.00,,,0.00,VWS V13.01,2013-02-07 12:00:00,
2013-02-07 06:01:00,39.4,9.8,29.32,NE,45,0.0,0.0,29,0.00,,,0.00,VWS V13.01,2013-02-07 12:01:00,
2013-02-07 06:02:00,39.4,9.8,29.32,NE,45,0.0,0.0,29,0.00,,,0.00,VWS V13.01,2013-02-07 12:02:00,
2013-02-07 06:03:00,39.4,9.8,29.32,NE,45,0.0,0.0,29,0.00,,,0.00,VWS V13.01,2013-02-07 12:03:00,
2013-02-07 06:04:00,39.0,9.5,29.32,East,90,0.0,0.0,29,0.00,,,0.00,VWS V13.01,2013-02-07 12:04:00,
2013-02-07 06:05:00,38.8,9.3,29.32,ENE,68,0.0,2.2,29,0.00,,,0.00,VWS V13.01,2013-02-07 12:05:00,
2013-02-07 06:06:00,38.8,9.3,29.32,East,90,0.0,0.0,29,0.00,,,0.00,VWS V13.01,2013-02-07 12:06:00,
2013-02-07 06:07:00,38.8,10.1,29.32,East,90,0.0,0.0,30,0.00,,,0.00,VWS V13.01,2013-02-07 12:07:00,
2013-02-07 06:08:00,38.8,10.1,29.32,East,90,0.0,0.0,30,0.00,,,0.00,VWS V13.01,2013-02-07 12:08:00,
2013-02-07 06:09:00,38.8,10.1,29.32,East,90,0.0,0.0,30,0.00,,,0.00,VWS V13.01,2013-02-07 12:09:00,
2013-02-07 06:10:00,38.8,10.1,29.32,East,90,0.0,0.0,30,0.00,,,0.00,VWS V13.01,2013-02-07 12:10:00,
2013-02-07 06:11:00,38.7,9.9,29.32,East,90,0.0,0.0,30,0.00,,,0.00,VWS V13.01,2013-02-07 12:11:00,
2013-02-07 06:12:00,38.7,9.9,29.32,East,90,0.0,0.0,30,0.00,,,0.00,VWS V13.01,2013-02-07 12:12:00,
2013-02-07 06:13:00,38.7,9.9,29.32,East,90,0.0,0.0,30,0.00,,,0.00,VWS V13.01,2013-02-07 12:13:00,
2013-02-07 06:14:00,38.7,9.9,29.32,East,90,0.0,0.0,30,0.00,,,0.00,VWS V13.01,2013-02-07 12:14:00,
2013-02-07 06:15:00,38.7,9.9,29.32,East,90,0.0,0.0,30,0.00,,,0.00,VWS V13.01,2013-02-07 12:15:00,
2013-02-07 06:16:00,38.7,9.9,29.32,East,90,0.0,0.0,30,0.00,,,0.00,VWS V13.01,2013-02-07 12:16:00,
2013-02-07 06:17:00,38.7,9.9,29.32,East,90,0.0,0.0,30,0.00,,,0.00,VWS V13.01,2013-02-07 12:17:00,
2013-02-07 06:18:00,38.7,9.9,29.32,East,90,0.0,0.0,30,0.00,,,0.00,VWS V13.01,2013-02-07 12:18:00,
2013-02-07 06:19:00,38.7,9.9,29.32,East,90,0.0,0.0,30,0.00,,,0.00,VWS V13.01,2013-02-07 12:19:00,
2013-02-07 06:20:00,38.7,9.9,29.32,East,90,0.0,0.0,30,0.00,,,0.00,VWS V13.01,2013-02-07 12:20:00,
2013-02-07 06:21:00,38.7,9.9,29.32,East,90,0.0,0.0,30,0.00,,,0.00,VWS V13.01,2013-02-07 12:21:00,
2013-02-07 06:22:00,38.7,9.9,29.32,East,90,0.0,0.0,30,0.00,,,0.00,VWS V13.01,2013-02-07 12:22:00,
2013-02-07 06:23:00,38.7,9.9,29.32,East,90,0.0,0.0,30,0.00,,,0.00,VWS V13.01,2013-02-07 12:23:00,
2013-02-07 06:24:00,38.5,9.8,29.32,East,90,0.0,0.0,30,0.00,,,0.00,VWS V13.01,2013-02-07 12:24:00,
2013-02-07 06:25:00,38.5,9.8,29.32,East,90,0.0,0.0,30,0.00,,,0.00,VWS V13.01,2013-02-07 12:25:00,
2013-02-07 06:26:00,38.5,9.8,29.32,East,90,0.0,0.0,30,0.00,,,0.00,VWS V13.01,2013-02-07 12:26:00,
2013-02-07 06:27:00,38.5,9.8,29.32,East,90,0.0,0.0,30,0.00,,,0.00,VWS V13.01,2013-02-07 12:27:00,
2013-02-07 06:28:00,38.5,9.8,29.32,East,90,0.0,0.0,30,0.00,,,0.00,VWS V13.01,2013-02-07 12:28:00,
2013-02-07 06:29:00,38.5,9.8,29.32,East,90,0.0,0.0,30,0.00,,,0.00,VWS V13.01,2013-02-07 12:29:00,
2013-02-07 06:30:00,38.5,9.8,29.32,East,90,0.0,0.0,30,0.00,,,0.00,VWS V13.01,2013-02-07 12:30:00,
2013-02-07 06:31:00,38.5,9.8,29.32,East,90,0.0,0.0,30,0.00,,,0.00,VWS V13.01,2013-02-07 12:31:00,
2013-02-07 06:32:00,38.5,9.8,29.32,East,90,0.0,0.0,30,0.00,,,0.00,VWS V13.01,2013-02-07 12:32:00,
2013-02-07 06:33:00,38.5,9.8,29.32,East,90,0.0,0.0,30,0.00,,,0.00,VWS V13.01,2013-02-07 12:33:00,
2013-02-07 06:34:00,38.3,9.6,29.32,East,90,0.0,0.0,30,0.00,,,0.00,VWS V13.01,2013-02-07 12:34:00,
2013-02-07 06:35:00,38.5,9.8,29.32,ESE,112,0.0,0.0,30,0.00,,,0.00,VWS V13.01,2013-02-07 12:35:00,
2013-02-07 06:36:00,38.5,9.8,29.32,ESE,112,0.0,0.0,30,0.00,,,0.00,VWS V13.01,2013-02-07 12:36:00,
2013-02-07 06:37:00,38.5,9.8,29.32,East,90,0.0,0.0,30,0.00,,,0.00,VWS V13.01,2013-02-07 12:37:00,
2013-02-07 06:38:00,38.5,9.8,29.32,East,90,0.0,0.0,30,0.00,,,0.00,VWS V13.01,2013-02-07 12:38:00,
2013-02-07 06:39:00,38.5,9.8,29.32,East,90,0.0,0.0,30,0.00,,,0.00,VWS V13.01,2013-02-07 12:39:00,
2013-02-07 06:40:00,38.5,9.8,29.32,East,90,0.0,0.0,30,0.00,,,0.00,VWS V13.01,2013-02-07 12:40:00,
2013-02-07 06:41:00,38.5,9.8,29.32,ESE,112,0.0,0.0,30,0.00,,,0.00,VWS V13.01,2013-02-07 12:41:00,
2013-02-07 06:42:00,38.5,9.8,29.32,ESE,112,0.0,0.0,30,0.00,,,0.00,VWS V13.01,2013-02-07 12:42:00,
2013-02-07 06:43:00,38.5,9.8,29.32,ESE,112,0.0,0.0,30,0.00,,,0.00,VWS V13.01,2013-02-07 12:43:00,
2013-02-07 06:44:00,38.5,9.8,29.32,ESE,112,0.0,0.0,30,0.00,,,0.00,VWS V13.01,2013-02-07 12:44:00,
2013-02-07 06:45:00,38.5,9.8,29.32,ESE,112,2.2,2.2,30,0.00,,,0.00,VWS V13.01,2013-02-07 12:45:00,
2013-02-07 06:46:00,38.5,9.8,29.32,ESE,112,0.0,2.2,30,0.00,,,0.00,VWS V13.01,2013-02-07 12:46:00,
2013-02-07 06:47:00,38.7,9.9,29.32,SE,135,0.0,0.0,30,0.00,,,0.00,VWS V13.01,2013-02-07 12:47:00,
2013-02-07 06:48:00,38.7,9.9,29.32,SE,135,0.0,0.0,30,0.00,,,0.00,VWS V13.01,2013-02-07 12:48:00,
2013-02-07 06:49:00,38.7,9.9,29.32,East,90,0.0,0.0,30,0.00,,,0.00,VWS V13.01,2013-02-07 12:49:00,
2013-02-07 06:50:00,38.7,9.9,29.32,East,90,0.0,0.0,30,0.00,,,0.00,VWS V13.01,2013-02-07 12:50:00,
2013-02-07 06:51:00,38.7,9.9,29.32,ESE,112,0.0,0.0,30,0.00,,,0.00,VWS V13.01,2013-02-07 12:51:00,
2013-02-07 06:52:00,38.7,9.9,29.32,SE,135,0.0,0.0,30,0.00,,,0.00,VWS V13.01,2013-02-07 12:52:00,
2013-02-07 06:53:00,38.7,9.9,29.32,East,90,0.0,2.7,30,0.00,,,0.00,VWS V13.01,2013-02-07 12:53:00,
2013-02-07 06:54:00,38.8,10.1,29.32,ESE,112,0.0,2.7,30,0.00,,,0.00,VWS V13.01,2013-02-07 12:54:00,
2013-02-07 06:55:00,38.8,10.1,29.32,ESE,112,0.0,0.0,30,0.00,,,0.00,VWS V13.01,2013-02-07 12:55:00,
2013-02-07 06:56:00,38.8,10.1,29.32,ESE,112,0.0,0.0,30,0.00,,,0.00,VWS V13.01,2013-02-07 12:56:00,
2013-02-07 06:57:00,38.8,9.3,29.32,ESE,112,0.0,0.0,29,0.00,,,0.00,VWS V13.01,2013-02-07 12:57:00,
2013-02-07 06:58:00,39.0,9.5,29.32,SE,135,3.6,5.4,29,0.00,,,0.00,VWS V13.01,2013-02-07 12:58:00,
2013-02-07 06:59:00,39.0,9.5,29.32,SE,135,3.6,5.4,29,0.00,,,0.00,VWS V13.01,2013-02-07 12:59:00,
2013-02-07 07:00:00,39.2,9.6,29.32,ESE,112,3.1,3.6,29,0.00,,,0.00,VWS V13.01,2013-02-07 13:00:00,
2013-02-07 07:01:00,39.2,9.6,29.32,ESE,112,4.9,4.9,29,0.00,,,0.00,VWS V13.01,2013-02-07 13:01:00,
2013-02-07 07:02:00,39.4,9.8,29.32,SE,135,2.7,5.4,29,0.00,,,0.00,VWS V13.01,2013-02-07 13:02:00,
2013-02-07 07:03:00,39.4,9.8,29.32,ESE,112,2.7,3.1,29,0.00,,,0.00,VWS V13.01,2013-02-07 13:03:00,
2013-02-07 07:04:00,39.4,9.8,29.32,East,90,3.1,4.9,29,0.00,,,0.00,VWS V13.01,2013-02-07 13:04:00,
2013-02-07 07:05:00,39.4,9.8,29.32,SE,135,2.7,3.6,29,0.00,,,0.00,VWS V13.01,2013-02-07 13:05:00,
2013-02-07 07:06:00,39.6,9.9,29.32,SE,135,6.7,6.7,29,0.00,,,0.00,VWS V13.01,2013-02-07 13:06:00,
2013-02-07 07:07:00,39.6,9.9,29.32,East,90,3.6,6.7,29,0.00,,,0.00,VWS V13.01,2013-02-07 13:07:00,
2013-02-07 07:08:00,39.7,10.1,29.32,SE,135,3.6,5.4,29,0.00,,,0.00,VWS V13.01,2013-02-07 13:08:00,
2013-02-07 07:09:00,39.7,10.1,29.32,ESE,112,3.1,5.4,29,0.00,,,0.00,VWS V13.01,2013-02-07 13:09:00,
2013-02-07 07:10:00,39.7,10.1,29.32,East,90,2.7,5.4,29,0.00,,,0.00,VWS V13.01,2013-02-07 13:10:00,
2013-02-07 07:11:00,39.9,10.3,29.32,SE,135,4.9,4.9,29,0.00,,,0.00,VWS V13.01,2013-02-07 13:11:00,
2013-02-07 07:12:00,39.9,10.3,29.32,ESE,112,4.0,4.9,29,0.00,,,0.00,VWS V13.01,2013-02-07 13:12:00,
2013-02-07 07:13:00,39.9,10.2,29.32,East,90,6.3,6.3,29,0.00,,,0.00,VWS V13.01,2013-02-07 13:13:00,
2013-02-07 07:14:00,39.9,10.3,29.32,SE,135,6.7,6.7,29,0.00,,,0.00,VWS V13.01,2013-02-07 13:14:00,
2013-02-07 07:15:00,39.9,10.3,29.32,SE,135,2.2,6.7,29,0.00,,,0.00,VWS V13.01,2013-02-07 13:15:00,
2013-02-07 07:16:00,40.1,10.4,29.32,East,90,0.0,4.0,29,0.00,,,0.00,VWS V13.01,2013-02-07 13:16:00,
2013-02-07 07:17:00,40.1,10.4,29.32,SE,135,4.0,6.3,29,0.00,,,0.00,VWS V13.01,2013-02-07 13:17:00,
2013-02-07 07:18:00,40.1,10.4,29.32,SE,135,8.7,8.7,29,0.00,,,0.00,VWS V13.01,2013-02-07 13:18:00,
2013-02-07 07:19:00,40.1,9.6,29.32,East,90,4.9,8.7,28,0.00,,,0.00,VWS V13.01,2013-02-07 13:19:00,
2013-02-07 07:20:00,40.3,10.6,29.32,ESE,112,4.9,5.8,29,0.00,,,0.00,VWS V13.01,2013-02-07 13:20:00,
2013-02-07 07:21:00,40.3,10.6,29.32,SE,135,5.8,5.8,29,0.00,,,0.00,VWS V13.01,2013-02-07 13:21:00,
2013-02-07 07:22:00,40.3,10.6,29.32,East,90,3.6,6.3,29,0.00,,,0.00,VWS V13.01,2013-02-07 13:22:00,
2013-02-07 07:23:00,40.3,10.6,29.32,East,90,2.7,7.2,29,0.00,,,0.00,VWS V13.01,2013-02-07 13:23:00,
2013-02-07 07:24:00,40.3,10.6,29.32,ESE,112,4.0,7.2,29,0.00,,,0.00,VWS V13.01,2013-02-07 13:24:00,
2013-02-07 07:25:00,40.1,10.4,29.32,SE,135,6.3,6.3,29,0.00,,,0.00,VWS V13.01,2013-02-07 13:25:00,
2013-02-07 07:26:00,40.1,10.4,29.32,SE,135,6.3,6.3,29,0.00,,,0.00,VWS V13.01,2013-02-07 13:26:00,
2013-02-07 07:27:00,39.9,10.3,29.32,SE,135,6.7,6.7,29,0.00,,,0.00,VWS V13.01,2013-02-07 13:27:00,
2013-02-07 07:28:00,39.9,10.2,29.32,SE,135,3.6,4.9,29,0.00,,,0.00,VWS V13.01,2013-02-07 13:28:00,
2013-02-07 07:29:00,39.9,10.3,29.32,SE,135,3.6,4.9,29,0.00,,,0.00,VWS V13.01,2013-02-07 13:29:00,
2013-02-07 07:30:00,39.9,10.3,29.32,East,90,5.8,5.8,29,0.00,,,0.00,VWS V13.01,2013-02-07 13:30:00,
2013-02-07 07:31:00,39.9,10.3,29.32,SE,135,0.0,5.8,29,0.00,,,0.00,VWS V13.01,2013-02-07 13:31:00,
2013-02-07 07:32:00,39.7,10.1,29.32,East,90,0.0,0.0,29,0.00,,,0.00,VWS V13.01,2013-02-07 13:32:00,
2013-02-07 07:33:00,39.7,10.9,29.32,SE,135,0.0,2.2,30,0.00,,,0.00,VWS V13.01,2013-02-07 13:33:00,
2013-02-07 07:34:00,39.7,10.9,29.32,SE,135,2.2,2.2,30,0.00,,,0.00,VWS V13.01,2013-02-07 13:34:00,
2013-02-07 07:35:00,39.7,10.9,29.32,SE,135,0.0,2.2,30,0.00,,,0.00,VWS V13.01,2013-02-07 13:35:00,
2013-02-07 07:36:00,39.6,10.7,29.32,ESE,112,0.0,4.9,30,0.00,,,0.00,VWS V13.01,2013-02-07 13:36:00,
2013-02-07 07:37:00,39.7,10.9,29.32,SE,135,2.2,2.2,30,0.00,,,0.00,VWS V13.01,2013-02-07 13:37:00,
2013-02-07 07:38:00,39.6,10.7,29.32,SE,135,4.0,5.8,30,0.00,,,0.00,VWS V13.01,2013-02-07 13:38:00,
2013-02-07 07:39:00,39.7,10.9,29.32,ESE,112,3.1,4.9,30,0.00,,,0.00,VWS V13.01,2013-02-07 13:39:00,
2013-02-07 07:40:00,39.9,11.0,29.32,SE,135,2.7,4.9,30,0.00,,,0.00,VWS V13.01,2013-02-07 13:40:00,
2013-02-07 07:41:00,39.9,11.0,29.32,SE,135,3.6,6.3,30,0.00,,,0.00,VWS V13.01,2013-02-07 13:41:00,
2013-02-07 07:42:00,39.9,11.0,29.32,ESE,112,3.1,4.0,30,0.00,,,0.00,VWS V13.01,2013-02-07 13:42:00,
2013-02-07 07:43:00,39.9,11.0,29.32,SE,135,3.1,5.4,30,0.00,,,0.00,VWS V13.01,2013-02-07 13:43:00,
2013-02-07 07:44:00,39.9,11.0,29.32,SE,135,2.7,5.4,30,0.00,,,0.00,VWS V13.01,2013-02-07 13:44:00,
2013-02-07 07:45:00,39.9,11.0,29.32,SE,135,4.0,4.0,30,0.00,,,0.00,VWS V13.01,2013-02-07 13:45:00,
2013-02-07 07:46:00,39.9,11.0,29.32,SE,135,3.1,5.8,30,0.00,,,0.00,VWS V13.01,2013-02-07 13:46:00,
2013-02-07 07:47:00,39.9,11.0,29.32,SE,135,0.0,3.6,30,0.00,,,0.00,VWS V13.01,2013-02-07 13:47:00,
2013-02-07 07:48:00,39.9,11.0,29.32,SE,135,2.7,3.1,30,0.00,,,0.00,VWS V13.01,2013-02-07 13:48:00,
2013-02-07 07:49:00,39.9,11.0,29.32,SE,135,2.7,5.4,30,0.00,,,0.00,VWS V13.01,2013-02-07 13:49:00,
2013-02-07 07:50:00,39.9,11.0,29.32,SE,135,0.0,4.9,30,0.00,,,0.00,VWS V13.01,2013-02-07 13:50:00,
2013-02-07 07:51:00,40.1,11.2,29.32,SE,135,0.0,0.0,30,0.00,,,0.00,VWS V13.01,2013-02-07 13:51:00,
2013-02-07 07:52:00,40.1,11.2,29.32,SE,135,0.0,0.0,30,0.00,,,0.00,VWS V13.01,2013-02-07 13:52:00,
2013-02-07 07:53:00,40.1,11.2,29.32,ESE,112,3.6,3.6,30,0.00,,,0.00,VWS V13.01,2013-02-07 13:53:00,
2013-02-07 07:54:00,40.1,11.2,29.32,SE,135,4.0,4.0,30,0.00,,,0.00,VWS V13.01,2013-02-07 13:54:00,
2013-02-07 07:55:00,40.3,10.6,29.32,East,90,7.6,7.6,29,0.00,,,0.00,VWS V13.01,2013-02-07 13:55:00,
2013-02-07 07:56:00,40.3,10.6,29.32,East,90,4.5,7.6,29,0.00,,,0.00,VWS V13.01,2013-02-07 13:56:00,
2013-02-07 07:57:00,40.3,10.6,29.32,SE,135,2.7,5.4,29,0.00,,,0.00,VWS V13.01,2013-02-07 13:57:00,
2013-02-07 07:58:00,40.5,10.7,29.32,ESE,112,2.2,3.6,29,0.00,,,0.00,VWS V13.01,2013-02-07 13:58:00,
2013-02-07 07:59:00,40.5,10.7,29.32,SE,135,2.2,4.9,29,0.00,,,0.00,VWS V13.01,2013-02-07 13:59:00,
2013-02-07 08:00:00,40.5,10.7,29.32,ESE,112,3.1,3.1,29,0.00,,,0.00,VWS V13.01,2013-02-07 14:00:00,
2013-02-07 08:01:00,40.5,10.7,29.32,ESE,112,4.0,4.0,29,0.00,,,0.00,VWS V13.01,2013-02-07 14:01:00,
2013-02-07 08:02:00,40.5,10.7,29.32,SE,135,6.3,6.3,29,0.00,,,0.00,VWS V13.01,2013-02-07 14:02:00,
2013-02-07 08:03:00,40.6,10.9,29.32,ESE,112,2.2,6.3,29,0.00,,,0.00,VWS V13.01,2013-02-07 14:03:00,
2013-02-07 08:04:00,40.6,10.9,29.32,SE,135,0.0,2.2,29,0.00,,,0.00,VWS V13.01,2013-02-07 14:04:00,
2013-02-07 08:05:00,40.5,10.7,29.32,ESE,112,5.8,5.8,29,0.00,,,0.00,VWS V13.01,2013-02-07 14:05:00,
2013-02-07 08:06:00,40.6,10.9,29.32,SE,135,3.1,5.8,29,0.00,,,0.00,VWS V13.01,2013-02-07 14:06:00,
2013-02-07 08:07:00,40.6,10.9,29.32,SE,135,4.0,5.4,29,0.00,,,0.00,VWS V13.01,2013-02-07 14:07:00,
2013-02-07 08:08:00,40.6,10.9,29.32,SE,135,5.4,5.4,29,0.00,,,0.00,VWS V13.01,2013-02-07 14:08:00,
2013-02-07 08:09:00,40.6,10.9,29.32,SE,135,3.6,3.6,29,0.00,,,0.00,VWS V13.01,2013-02-07 14:09:00,
2013-02-07 08:10:00,40.8,11.0,29.32,ESE,112,3.6,3.6,29,0.00,,,0.00,VWS V13.01,2013-02-07 14:10:00,
2013-02-07 08:11:00,40.8,11.0,29.32,SE,135,6.3,6.3,29,0.00,,,0.00,VWS V13.01,2013-02-07 14:11:00,
2013-02-07 08:12:00,40.8,11.0,29.32,SE,135,5.4,6.3,29,0.00,,,0.00,VWS V13.01,2013-02-07 14:12:00,
2013-02-07 08:13:00,41.0,11.2,29.32,SE,135,3.1,5.4,29,0.00,,,0.00,VWS V13.01,2013-02-07 14:13:00,
2013-02-07 08:14:00,41.0,11.2,29.32,ESE,112,3.1,4.0,29,0.00,,,0.00,VWS V13.01,2013-02-07 14:14:00,
2013-02-07 08:15:00,41.0,11.2,29.32,SE,135,5.4,5.4,29,0.00,,,0.00,VWS V13.01,2013-02-07 14:15:00,
2013-02-07 08:16:00,41.0,11.2,29.32,SE,135,2.7,5.4,29,0.00,,,0.00,VWS V13.01,2013-02-07 14:16:00,
2013-02-07 08:17:00,41.0,11.2,29.32,SE,135,4.0,6.3,29,0.00,,,0.00,VWS V13.01,2013-02-07 14:17:00,
2013-02-07 08:18:00,41.2,11.4,29.32,East,90,2.7,4.0,29,0.00,,,0.00,VWS V13.01,2013-02-07 14:18:00,
2013-02-07 08:19:00,41.2,11.4,29.32,SE,135,4.0,4.0,29,0.00,,,0.00,VWS V13.01,2013-02-07 14:19:00,
2013-02-07 08:20:00,41.2,11.4,29.32,East,90,2.2,4.0,29,0.00,,,0.00,VWS V13.01,2013-02-07 14:20:00,
2013-02-07 08:21:00,41.2,11.4,29.32,ESE,112,3.1,3.6,29,0.00,,,0.00,VWS V13.01,2013-02-07 14:21:00,
2013-02-07 08:22:00,41.2,11.4,29.32,SE,135,6.7,6.7,29,0.00,,,0.00,VWS V13.01,2013-02-07 14:22:00,
2013-02-07 08:23:00,41.2,11.4,29.32,SE,135,4.0,6.7,29,0.00,,,0.00,VWS V13.01,2013-02-07 14:23:00,
2013-02-07 08:24:00,41.4,11.5,29.32,East,90,2.7,2.7,29,0.00,,,0.00,VWS V13.01,2013-02-07 14:24:00,
2013-02-07 08:25:00,41.5,11.7,29.32,SE,135,5.4,5.4,29,0.00,,,0.00,VWS V13.01,2013-02-07 14:25:00,
2013-02-07 08:26:00,41.5,11.7,29.32,SE,135,2.2,5.4,29,0.00,,,0.00,VWS V13.01,2013-02-07 14:26:00,
2013-02-07 08:27:00,41.5,11.7,29.32,SE,135,0.0,3.1,29,0.00,,,0.00,VWS V13.01,2013-02-07 14:27:00,
2013-02-07 08:28:00,41.7,11.8,29.32,SE,135,0.0,0.0,29,0.00,,,0.00,VWS V13.01,2013-02-07 14:28:00,
2013-02-07 08:29:00,41.7,11.8,29.32,SE,135,2.2,5.4,29,0.00,,,0.00,VWS V13.01,2013-02-07 14:29:00,
2013-02-07 08:30:00,41.7,11.8,29.32,SE,135,0.0,5.4,29,0.00,,,0.00,VWS V13.01,2013-02-07 14:30:00,
2013-02-07 08:31:00,41.7,11.8,29.32,SE,135,2.7,2.7,29,0.00,,,0.00,VWS V13.01,2013-02-07 14:31:00,
2013-02-07 08:32:00,41.7,11.8,29.32,SE,135,0.0,4.0,29,0.00,,,0.00,VWS V13.01,2013-02-07 14:32:00,
2013-02-07 08:33:00,42.1,12.1,29.32,East,90,0.0,3.6,29,0.00,,,0.00,VWS V13.01,2013-02-07 14:33:00,
2013-02-07 08:34:00,42.1,11.3,29.32,SE,135,2.7,3.6,28,0.00,,,0.00,VWS V13.01,2013-02-07 14:34:00,
2013-02-07 08:35:00,42.1,11.3,29.32,East,90,3.6,3.6,28,0.00,,,0.00,VWS V13.01,2013-02-07 14:35:00,
2013-02-07 08:36:00,42.1,11.3,29.32,SE,135,3.1,4.0,28,0.00,,,0.00,VWS V13.01,2013-02-07 14:36:00,
2013-02-07 08:37:00,42.3,11.5,29.32,SE,135,3.1,3.6,28,0.00,,,0.00,VWS V13.01,2013-02-07 14:37:00,
2013-02-07 08:38:00,42.3,11.5,29.32,SSE,158,0.0,3.1,28,0.00,,,0.00,VWS V13.01,2013-02-07 14:38:00,
2013-02-07 08:39:00,42.3,11.5,29.32,SE,135,3.1,4.5,28,0.00,,,0.00,VWS V13.01,2013-02-07 14:39:00,
2013-02-07 08:40:00,42.4,11.6,29.32,SE,135,3.1,4.5,28,0.00,,,0.00,VWS V13.01,2013-02-07 14:40:00,
2013-02-07 08:41:00,42.4,11.6,29.32,ESE,112,0.0,3.1,28,0.00,,,0.00,VWS V13.01,2013-02-07 14:41:00,
2013-02-07 08:42:00,42.4,11.6,29.32,SE,135,0.0,2.7,28,0.00,,,0.00,VWS V13.01,2013-02-07 14:42:00,
2013-02-07 08:43:00,42.6,11.8,29.32,SE,135,0.0,0.0,28,0.00,,,0.00,VWS V13.01,2013-02-07 14:43:00,
2013-02-07 08:44:00,42.8,12.0,29.32,SE,135,3.1,4.0,28,0.00,,,0.00,VWS V13.01,2013-02-07 14:44:00,
2013-02-07 08:45:00,42.8,12.0,29.32,SSE,158,4.9,4.9,28,0.00,,,0.00,VWS V13.01,2013-02-07 14:45:00,
2013-02-07 08:46:00,42.8,12.0,29.32,East,90,4.0,4.9,28,0.00,,,0.00,VWS V13.01,2013-02-07 14:46:00,
2013-02-07 08:47:00,42.8,12.0,29.32,SE,135,3.1,5.4,28,0.00,,,0.00,VWS V13.01,2013-02-07 14:47:00,
2013-02-07 08:48:00,43.0,12.1,29.32,SE,135,6.3,6.3,28,0.00,,,0.00,VWS V13.01,2013-02-07 14:48:00,
2013-02-07 08:49:00,43.0,12.1,29.32,SE,135,3.1,5.4,28,0.00,,,0.00,VWS V13.01,2013-02-07 14:49:00,
2013-02-07 08:50:00,43.0,12.1,29.32,SE,135,3.1,5.4,28,0.00,,,0.00,VWS V13.01,2013-02-07 14:50:00,
2013-02-07 08:51:00,43.0,12.1,29.32,SE,135,0.0,4.9,28,0.00,,,0.00,VWS V13.01,2013-02-07 14:51:00,
2013-02-07 08:52:00,43.2,12.3,29.32,South,180,3.6,3.6,28,0.00,,,0.00,VWS V13.01,2013-02-07 14:52:00,
2013-02-07 08:53:00,43.2,12.3,29.32,SE,135,4.9,7.6,28,0.00,,,0.00,VWS V13.01,2013-02-07 14:53:00,
2013-02-07 08:54:00,43.3,12.4,29.32,SE,135,2.7,4.0,28,0.00,,,0.00,VWS V13.01,2013-02-07 14:54:00,
2013-02-07 08:55:00,43.3,12.4,29.32,SE,135,2.7,4.0,28,0.00,,,0.00,VWS V13.01,2013-02-07 14:55:00,
2013-02-07 08:56:00,43.3,12.4,29.32,East,90,3.1,4.9,28,0.00,,,0.00,VWS V13.01,2013-02-07 14:56:00,
2013-02-07 08:57:00,43.3,12.4,29.32,SE,135,3.1,4.5,28,0.00,,,0.00,VWS V13.01,2013-02-07 14:57:00,
2013-02-07 08:58:00,43.3,12.4,29.32,SE,135,5.4,5.8,28,0.00,,,0.00,VWS V13.01,2013-02-07 14:58:00,
2013-02-07 08:59:00,43.3,12.4,29.32,SE,135,0.0,6.3,28,0.00,,,0.00,VWS V13.01,2013-02-07 14:59:00,
2013-02-07 09:00:00,43.3,12.4,29.32,SE,135,0.0,6.3,28,0.00,,,0.00,VWS V13.01,2013-02-07 15:00:00,
2013-02-07 09:01:00,43.3,12.4,29.32,SE,135,4.0,7.6,28,0.00,,,0.00,VWS V13.01,2013-02-07 15:01:00,
2013-02-07 09:02:00,43.3,12.4,29.32,SE,135,3.6,5.8,28,0.00,,,0.00,VWS V13.01,2013-02-07 15:02:00,
2013-02-07 09:03:00,43.2,12.3,29.32,South,180,2.7,4.0,28,0.00,,,0.00,VWS V13.01,2013-02-07 15:03:00,
2013-02-07 09:04:00,43.2,12.3,29.32,SE,135,5.4,6.7,28,0.00,,,0.00,VWS V13.01,2013-02-07 15:04:00,
2013-02-07 09:05:00,43.2,12.3,29.32,SE,135,2.7,6.7,28,0.00,,,0.00,VWS V13.01,2013-02-07 15:05:00,
2013-02-07 09:06:00,43.2,12.3,29.32,SE,135,3.1,3.1,28,0.00,,,0.00,VWS V13.01,2013-02-07 15:06:00,
2013-02-07 09:07:00,43.2,12.3,29.32,SE,135,2.7,3.6,28,0.00,,,0.00,VWS V13.01,2013-02-07 15:07:00,
2013-02-07 09:08:00,43.2,12.3,29.32,East,90,2.7,3.1,28,0.00,,,0.00,VWS V13.01,2013-02-07 15:08:00,
2013-02-07 09:09:00,43.2,12.3,29.32,ESE,112,3.6,5.8,28,0.00,,,0.00,VWS V13.01,2013-02-07 15:09:00,
2013-02-07 09:10:00,43.2,12.3,29.32,SE,135,2.7,5.4,28,0.00,,,0.00,VWS V13.01,2013-02-07 15:10:00,
2013-02-07 09:11:00,43.2,12.3,29.32,SE,135,3.1,4.0,28,0.00,,,0.00,VWS V13.01,2013-02-07 15:11:00,
2013-02-07 09:12:00,43.3,12.4,29.32,ESE,112,0.0,3.1,28,0.00,,,0.00,VWS V13.01,2013-02-07 15:12:00,
2013-02-07 09:13:00,43.3,12.4,29.32,SE,135,3.1,4.0,28,0.00,,,0.00,VWS V13.01,2013-02-07 15:13:00,
2013-02-07 09:14:00,43.3,12.4,29.32,SE,135,2.7,3.1,28,0.00,,,0.00,VWS V13.01,2013-02-07 15:14:00,
2013-02-07 09:15:00,43.3,12.4,29.32,SE,135,3.1,4.9,28,0.00,,,0.00,VWS V13.01,2013-02-07 15:15:00,
2013-02-07 09:16:00,43.3,12.4,29.32,South,180,4.0,4.9,28,0.00,,,0.00,VWS V13.01,2013-02-07 15:16:00,
2013-02-07 09:17:00,43.3,12.4,29.32,SSE,158,0.0,4.0,28,0.00,,,0.00,VWS V13.01,2013-02-07 15:17:00,
2013-02-07 09:18:00,43.5,12.6,29.32,South,180,0.0,0.0,28,0.00,,,0.00,VWS V13.01,2013-02-07 15:18:00,
2013-02-07 09:19:00,43.5,12.6,29.32,South,180,0.0,3.1,28,0.00,,,0.00,VWS V13.01,2013-02-07 15:19:00,
2013-02-07 09:20:00,43.5,12.6,29.32,South,180,0.0,0.0,28,0.00,,,0.00,VWS V13.01,2013-02-07 15:20:00,
2013-02-07 09:21:00,43.5,12.6,29.32,South,180,0.0,0.0,28,0.00,,,0.00,VWS V13.01,2013-02-07 15:21:00,
2013-02-07 09:22:00,43.7,12.8,29.32,SE,135,0.0,0.0,28,0.00,,,0.00,VWS V13.01,2013-02-07 15:22:00,
2013-02-07 09:23:00,43.7,12.8,29.32,SE,135,0.0,0.0,28,0.00,,,0.00,VWS V13.01,2013-02-07 15:23:00,
2013-02-07 09:24:00,43.7,12.8,29.32,SE,135,0.0,0.0,28,0.00,,,0.00,VWS V13.01,2013-02-07 15:24:00,
2013-02-07 09:25:00,43.7,12.8,29.32,SE,135,0.0,0.0,28,0.00,,,0.00,VWS V13.01,2013-02-07 15:25:00,
2013-02-07 09:26:00,43.9,12.9,29.32,SE,135,0.0,0.0,28,0.00,,,0.00,VWS V13.01,2013-02-07 15:26:00,
2013-02-07 09:27:00,43.9,12.9,29.32,South,180,0.0,0.0,28,0.00,,,0.00,VWS V13.01,2013-02-07 15:27:00,
2013-02-07 09:28:00,43.9,12.9,29.32,SW,225,0.0,0.0,28,0.00,,,0.00,VWS V13.01,2013-02-07 15:28:00,
2013-02-07 09:29:00,43.9,12.9,29.32,SW,225,0.0,0.0,28,0.00,,,0.00,VWS V13.01,2013-02-07 15:29:00,
2013-02-07 09:30:00,44.1,13.1,29.32,SW,225,0.0,0.0,28,0.00,,,0.00,VWS V13.01,2013-02-07 15:30:00,
2013-02-07 09:31:00,44.1,13.1,29.32,SW,225,0.0,0.0,28,0.00,,,0.00,VWS V13.01,2013-02-07 15:31:00,
2013-02-07 09:32:00,44.1,13.1,29.32,SW,225,0.0,0.0,28,0.00,,,0.00,VWS V13.01,2013-02-07 15:32:00,
2013-02-07 09:33:00,44.1,13.1,29.32,SW,225,0.0,0.0,28,0.00,,,0.00,VWS V13.01,2013-02-07 15:33:00,
2013-02-07 09:34:00,44.1,13.1,29.32,SW,225,0.0,0.0,28,0.00,,,0.00,VWS V13.01,2013-02-07 15:34:00,
2013-02-07 09:35:00,44.1,13.1,29.32,SW,225,0.0,0.0,28,0.00,,,0.00,VWS V13.01,2013-02-07 15:35:00,
2013-02-07 09:36:00,44.1,13.1,29.32,South,180,0.0,0.0,28,0.00,,,0.00,VWS V13.01,2013-02-07 15:36:00,
2013-02-07 09:37:00,44.1,13.1,29.32,South,180,0.0,0.0,28,0.00,,,0.00,VWS V13.01,2013-02-07 15:37:00,
2013-02-07 09:38:00,44.1,13.1,29.32,South,180,0.0,0.0,28,0.00,,,0.00,VWS V13.01,2013-02-07 15:38:00,
2013-02-07 09:39:00,44.1,13.1,29.32,South,180,0.0,0.0,28,0.00,,,0.00,VWS V13.01,2013-02-07 15:39:00,
2013-02-07 09:40:00,44.1,13.1,29.32,South,180,0.0,0.0,28,0.00,,,0.00,VWS V13.01,2013-02-07 15:40:00,
2013-02-07 09:41:00,44.1,13.1,29.32,South,180,0.0,0.0,28,0.00,,,0.00,VWS V13.01,2013-02-07 15:41:00,
2013-02-07 09:42:00,43.9,12.9,29.32,South,180,0.0,0.0,28,0.00,,,0.00,VWS V13.01,2013-02-07 15:42:00,
2013-02-07 09:43:00,44.1,13.1,29.32,South,180,0.0,0.0,28,0.00,,,0.00,VWS V13.01,2013-02-07 15:43:00,
2013-02-07 09:45:00,43.7,12.8,29.32,South,180,0.0,0.0,28,0.00,,,0.00,VWS V13.01,2013-02-07 15:45:00,
2013-02-07 09:46:00,43.7,12.8,29.32,South,180,0.0,0.0,28,0.00,,,0.00,VWS V13.01,2013-02-07 15:46:00,
2013-02-07 09:47:00,43.7,12.8,29.32,South,180,0.0,0.0,28,0.00,,,0.00,VWS V13.01,2013-02-07 15:47:00,
2013-02-07 09:48:00,43.7,13.5,29.32,South,180,0.0,0.0,29,0.00,,,0.00,VWS V13.01,2013-02-07 15:48:00,
2013-02-07 09:49:00,43.7,13.5,29.32,South,180,0.0,0.0,29,0.00,,,0.00,VWS V13.01,2013-02-07 15:49:00,
2013-02-07 09:50:00,43.5,13.4,29.32,South,180,0.0,0.0,29,0.00,,,0.00,VWS V13.01,2013-02-07 15:50:00,
2013-02-07 09:51:00,43.5,13.4,29.32,South,180,0.0,0.0,29,0.00,,,0.00,VWS V13.01,2013-02-07 15:51:00,
2013-02-07 09:52:00,43.5,13.4,29.32,South,180,0.0,0.0,29,0.00,,,0.00,VWS V13.01,2013-02-07 15:52:00,
2013-02-07 09:53:00,43.5,13.4,29.32,South,180,0.0,0.0,29,0.00,,,0.00,VWS V13.01,2013-02-07 15:53:00,
2013-02-07 09:54:00,43.5,13.4,29.32,South,180,0.0,0.0,29,0.00,,,0.00,VWS V13.01,2013-02-07 15:54:00,
2013-02-07 09:55:00,43.5,13.4,29.32,South,180,0.0,0.0,29,0.00,,,0.00,VWS V13.01,2013-02-07 15:55:00,
2013-02-07 09:56:00,43.5,13.4,29.32,South,180,0.0,0.0,29,0.00,,,0.00,VWS V13.01,2013-02-07 15:56:00,
2013-02-07 09:57:00,43.5,13.4,29.32,South,180,0.0,0.0,29,0.00,,,0.00,VWS V13.01,2013-02-07 15:57:00,
2013-02-07 09:58:00,43.5,13.4,29.32,South,180,0.0,0.0,29,0.00,,,0.00,VWS V13.01,2013-02-07 15:58:00,
2013-02-07 09:59:00,43.3,13.2,29.32,South,180,0.0,0.0,29,0.00,,,0.00,VWS V13.01,2013-02-07 15:59:00,
2013-02-07 10:00:00,43.3,13.2,29.32,South,180,0.0,0.0,29,0.00,,,0.00,VWS V13.01,2013-02-07 16:00:00,
2013-02-07 10:01:00,43.3,13.2,29.32,South,180,0.0,0.0,29,0.00,,,0.00,VWS V13.01,2013-02-07 16:01:00,
2013-02-07 10:02:00,43.3,13.2,29.32,South,180,0.0,0.0,29,0.00,,,0.00,VWS V13.01,2013-02-07 16:02:00,
2013-02-07 10:03:00,43.3,13.2,29.32,South,180,0.0,0.0,29,0.00,,,0.00,VWS V13.01,2013-02-07 16:03:00,
2013-02-07 10:04:00,43.5,13.4,29.32,South,180,0.0,0.0,29,0.00,,,0.00,VWS V13.01,2013-02-07 16:04:00,
2013-02-07 10:05:00,43.5,14.2,29.32,South,180,0.0,0.0,30,0.00,,,0.00,VWS V13.01,2013-02-07 16:05:00,
2013-02-07 10:06:00,43.3,13.2,29.32,South,180,0.0,0.0,29,0.00,,,0.00,VWS V13.01,2013-02-07 16:06:00,
2013-02-07 10:07:00,43.3,13.2,29.32,South,180,0.0,0.0,29,0.00,,,0.00,VWS V13.01,2013-02-07 16:07:00,
2013-02-07 10:08:00,43.3,13.2,29.32,South,180,0.0,0.0,29,0.00,,,0.00,VWS V13.01,2013-02-07 16:08:00,
2013-02-07 10:09:00,43.3,13.2,29.32,South,180,0.0,0.0,29,0.00,,,0.00,VWS V13.01,2013-02-07 16:09:00,
2013-02-07 10:10:00,43.5,14.2,29.32,South,180,0.0,0.0,30,0.00,,,0.00,VWS V13.01,2013-02-07 16:10:00,
2013-02-07 10:11:00,43.3,14.0,29.32,South,180,0.0,0.0,30,0.00,,,0.00,VWS V13.01,2013-02-07 16:11:00,
2013-02-07 10:12:00,43.3,14.0,29.32,South,180,0.0,0.0,30,0.00,,,0.00,VWS V13.01,2013-02-07 16:12:00,
2013-02-07 10:13:00,43.3,14.0,29.32,South,180,0.0,0.0,30,0.00,,,0.00,VWS V13.01,2013-02-07 16:13:00,
2013-02-07 10:14:00,43.3,14.0,29.32,East,90,0.0,0.0,30,0.00,,,0.00,VWS V13.01,2013-02-07 16:14:00,
2013-02-07 10:15:00,43.3,14.0,29.32,East,90,0.0,0.0,30,0.00,,,0.00,VWS V13.01,2013-02-07 16:15:00,
2013-02-07 10:16:00,43.3,14.0,29.32,East,90,0.0,0.0,30,0.00,,,0.00,VWS V13.01,2013-02-07 16:16:00,
2013-02-07 10:17:00,43.3,14.0,29.32,East,90,0.0,0.0,30,0.00,,,0.00,VWS V13.01,2013-02-07 16:17:00,
2013-02-07 10:18:00,43.3,14.0,29.32,East,90,0.0,0.0,30,0.00,,,0.00,VWS V13.01,2013-02-07 16:18:00,
2013-02-07 10:19:00,43.3,14.0,29.32,East,90,0.0,0.0,30,0.00,,,0.00,VWS V13.01,2013-02-07 16:19:00,
2013-02-07 10:20:00,43.3,14.0,29.32,East,90,0.0,0.0,30,0.00,,,0.00,VWS V13.01,2013-02-07 16:20:00,
2013-02-07 10:21:00,43.3,14.8,29.32,East,90,0.0,0.0,31,0.00,,,0.00,VWS V13.01,2013-02-07 16:21:00,
2013-02-07 10:22:00,43.5,14.9,29.32,East,90,0.0,0.0,31,0.00,,,0.00,VWS V13.01,2013-02-07 16:22:00,
2013-02-07 10:23:00,43.5,14.9,29.32,East,90,0.0,0.0,31,0.00,,,0.00,VWS V13.01,2013-02-07 16:23:00,
2013-02-07 10:24:00,43.3,14.8,29.32,East,90,0.0,0.0,31,0.00,,,0.00,VWS V13.01,2013-02-07 16:24:00,
2013-02-07 10:25:00,43.3,14.8,29.32,East,90,0.0,0.0,31,0.00,,,0.00,VWS V13.01,2013-02-07 16:25:00,
2013-02-07 10:26:00,43.3,14.8,29.32,East,90,0.0,0.0,31,0.00,,,0.00,VWS V13.01,2013-02-07 16:26:00,
2013-02-07 10:27:00,43.2,14.6,29.32,East,90,0.0,0.0,31,0.00,,,0.00,VWS V13.01,2013-02-07 16:27:00,
2013-02-07 10:28:00,43.2,14.6,29.32,East,90,2.7,2.7,31,0.00,,,0.00,VWS V13.01,2013-02-07 16:28:00,
2013-02-07 10:29:00,43.2,14.6,29.32,East,90,2.2,3.1,31,0.04,,,0.04,VWS V13.01,2013-02-07 16:29:00,
2013-02-07 10:30:00,43.2,14.6,29.32,East,90,0.0,2.2,31,0.04,,,0.04,VWS V13.01,2013-02-07 16:30:00,
2013-02-07 10:31:00,43.0,15.2,29.32,East,90,0.0,0.0,32,0.04,,,0.04,VWS V13.01,2013-02-07 16:31:00,
2013-02-07 10:32:00,43.0,15.2,29.32,East,90,0.0,0.0,32,0.04,,,0.04,VWS V13.01,2013-02-07 16:32:00,
2013-02-07 10:33:00,43.0,15.9,29.29,East,90,0.0,0.0,33,0.04,,,0.04,VWS V13.01,2013-02-07 16:33:00,
2013-02-07 10:34:00,42.8,15.7,29.29,East,90,0.0,0.0,33,0.04,,,0.04,VWS V13.01,2013-02-07 16:34:00,
2013-02-07 10:35:00,42.8,15.7,29.29,East,90,0.0,0.0,33,0.04,,,0.04,VWS V13.01,2013-02-07 16:35:00,
2013-02-07 10:36:00,42.8,15.7,29.29,East,90,0.0,0.0,33,0.04,,,0.04,VWS V13.01,2013-02-07 16:36:00,
2013-02-07 10:37:00,42.8,15.7,29.29,East,90,0.0,0.0,33,0.04,,,0.04,VWS V13.01,2013-02-07 16:37:00,
2013-02-07 10:38:00,42.8,15.7,29.29,East,90,0.0,0.0,33,0.04,,,0.04,VWS V13.01,2013-02-07 16:38:00,
2013-02-07 10:39:00,42.8,16.4,29.29,East,90,0.0,0.0,34,0.04,,,0.04,VWS V13.01,2013-02-07 16:39:00,
2013-02-07 10:40:00,42.8,16.4,29.29,East,90,0.0,0.0,34,0.04,,,0.04,VWS V13.01,2013-02-07 16:40:00,
2013-02-07 10:41:00,42.8,17.1,29.29,East,90,0.0,0.0,35,0.04,,,0.04,VWS V13.01,2013-02-07 16:41:00,
2013-02-07 10:42:00,42.8,17.1,29.29,East,90,0.0,0.0,35,0.04,,,0.04,VWS V13.01,2013-02-07 16:42:00,
2013-02-07 10:43:00,42.8,17.1,29.29,East,90,0.0,0.0,35,0.04,,,0.04,VWS V13.01,2013-02-07 16:43:00,
2013-02-07 10:44:00,42.8,17.7,29.29,East,90,0.0,0.0,36,0.04,,,0.04,VWS V13.01,2013-02-07 16:44:00,
2013-02-07 10:45:00,42.8,17.7,29.29,East,90,0.0,0.0,36,0.04,,,0.04,VWS V13.01,2013-02-07 16:45:00,
2013-02-07 10:46:00,42.6,18.8,29.29,East,90,0.0,0.0,38,0.04,,,0.04,VWS V13.01,2013-02-07 16:46:00,
2013-02-07 10:47:00,42.6,18.8,29.29,East,90,0.0,0.0,38,0.04,,,0.04,VWS V13.01,2013-02-07 16:47:00,
2013-02-07 10:48:00,42.6,18.8,29.29,East,90,0.0,0.0,38,0.04,,,0.04,VWS V13.01,2013-02-07 16:48:00,
2013-02-07 10:49:00,42.4,18.6,29.29,East,90,0.0,0.0,38,0.04,,,0.04,VWS V13.01,2013-02-07 16:49:00,
2013-02-07 10:50:00,42.4,18.6,29.29,East,90,0.0,0.0,38,0.04,,,0.04,VWS V13.01,2013-02-07 16:50:00,
2013-02-07 10:51:00,42.4,18.6,29.29,East,90,0.0,0.0,38,0.04,,,0.04,VWS V13.01,2013-02-07 16:51:00,
2013-02-07 10:52:00,42.4,18.6,29.29,East,90,0.0,0.0,38,0.04,,,0.04,VWS V13.01,2013-02-07 16:52:00,
2013-02-07 10:53:00,42.4,18.6,29.29,East,90,0.0,0.0,38,0.04,,,0.04,VWS V13.01,2013-02-07 16:53:00,
2013-02-07 10:54:00,42.4,18.6,29.29,East,90,0.0,0.0,38,0.04,,,0.04,VWS V13.01,2013-02-07 16:54:00,
2013-02-07 10:55:00,42.4,18.6,29.29,East,90,0.0,0.0,38,0.04,,,0.04,VWS V13.01,2013-02-07 16:55:00,
2013-02-07 10:56:00,42.4,18.6,29.29,ESE,112,3.6,3.6,38,0.04,,,0.04,VWS V13.01,2013-02-07 16:56:00,
2013-02-07 10:57:00,42.4,18.6,29.29,ESE,112,2.2,4.0,38,0.04,,,0.04,VWS V13.01,2013-02-07 16:57:00,
2013-02-07 10:58:00,42.4,18.0,29.29,ESE,112,4.0,4.0,37,0.04,,,0.04,VWS V13.01,2013-02-07 16:58:00,
2013-02-07 10:59:00,42.4,18.0,29.29,ESE,112,4.5,5.4,37,0.04,,,0.04,VWS V13.01,2013-02-07 16:59:00,
2013-02-07 11:00:00,42.4,18.0,29.29,ESE,112,3.1,4.5,37,0.04,,,0.04,VWS V13.01,2013-02-07 17:00:00,
2013-02-07 11:01:00,42.6,17.5,29.29,East,90,0.0,0.0,36,0.04,,,0.04,VWS V13.01,2013-02-07 17:01:00,
2013-02-07 11:02:00,42.6,17.5,29.29,East,90,0.0,0.0,36,0.04,,,0.04,VWS V13.01,2013-02-07 17:02:00,
2013-02-07 11:03:00,42.6,17.5,29.29,ESE,112,3.1,3.1,36,0.04,,,0.04,VWS V13.01,2013-02-07 17:03:00,
2013-02-07 11:04:00,42.6,17.5,29.29,East,90,2.7,3.6,36,0.04,,,0.04,VWS V13.01,2013-02-07 17:04:00,
2013-02-07 11:05:00,42.6,17.5,29.29,SE,135,2.7,4.0,36,0.04,,,0.04,VWS V13.01,2013-02-07 17:05:00,
2013-02-07 11:06:00,42.6,17.5,29.29,East,90,0.0,0.0,36,0.04,,,0.04,VWS V13.01,2013-02-07 17:06:00,
2013-02-07 11:07:00,42.6,17.5,29.29,East,90,0.0,0.0,36,0.04,,,0.04,VWS V13.01,2013-02-07 17:07:00,
2013-02-07 11:08:00,42.8,17.7,29.29,East,90,0.0,0.0,36,0.04,,,0.04,VWS V13.01,2013-02-07 17:08:00,
2013-02-07 11:09:00,42.8,17.7,29.29,South,180,0.0,0.0,36,0.04,,,0.04,VWS V13.01,2013-02-07 17:09:00,
2013-02-07 11:10:00,42.8,17.7,29.29,SE,135,0.0,0.0,36,0.04,,,0.04,VWS V13.01,2013-02-07 17:10:00,
2013-02-07 11:11:00,42.8,17.7,29.29,East,90,0.0,0.0,36,0.04,,,0.04,VWS V13.01,2013-02-07 17:11:00,
2013-02-07 11:12:00,42.8,17.7,29.29,East,90,0.0,0.0,36,0.04,,,0.04,VWS V13.01,2013-02-07 17:12:00,
2013-02-07 11:13:00,42.8,17.7,29.29,East,90,0.0,0.0,36,0.04,,,0.04,VWS V13.01,2013-02-07 17:13:00,
2013-02-07 11:14:00,43.0,18.5,29.29,East,90,0.0,0.0,37,0.04,,,0.04,VWS V13.01,2013-02-07 17:14:00,
2013-02-07 11:15:00,43.0,18.5,29.29,East,90,0.0,0.0,37,0.04,,,0.04,VWS V13.01,2013-02-07 17:15:00,
2013-02-07 11:16:00,43.0,18.5,29.29,East,90,0.0,0.0,37,0.04,,,0.04,VWS V13.01,2013-02-07 17:16:00,
2013-02-07 11:17:00,43.0,18.5,29.29,East,90,0.0,0.0,37,0.04,,,0.04,VWS V13.01,2013-02-07 17:17:00,
2013-02-07 11:18:00,43.0,18.5,29.29,East,90,0.0,0.0,37,0.04,,,0.04,VWS V13.01,2013-02-07 17:18:00,
2013-02-07 11:19:00,43.0,18.5,29.29,East,90,0.0,0.0,37,0.04,,,0.04,VWS V13.01,2013-02-07 17:19:00,
2013-02-07 11:20:00,43.2,18.7,29.29,East,90,0.0,0.0,37,0.04,,,0.04,VWS V13.01,2013-02-07 17:20:00,
2013-02-07 11:21:00,43.3,18.8,29.29,East,90,0.0,0.0,37,0.04,,,0.04,VWS V13.01,2013-02-07 17:21:00,
2013-02-07 11:22:00,43.3,18.8,29.29,East,90,0.0,0.0,37,0.04,,,0.04,VWS V13.01,2013-02-07 17:22:00,
2013-02-07 11:23:00,43.3,18.8,29.29,East,90,0.0,0.0,37,0.04,,,0.04,VWS V13.01,2013-02-07 17:23:00,
2013-02-07 11:24:00,43.3,18.8,29.29,East,90,0.0,0.0,37,0.04,,,0.04,VWS V13.01,2013-02-07 17:24:00,
2013-02-07 11:25:00,43.3,18.8,29.29,East,90,0.0,0.0,37,0.04,,,0.04,VWS V13.01,2013-02-07 17:25:00,
2013-02-07 11:26:00,43.3,18.8,29.29,East,90,0.0,0.0,37,0.04,,,0.04,VWS V13.01,2013-02-07 17:26:00,
2013-02-07 11:27:00,43.5,19.0,29.29,East,90,0.0,0.0,37,0.04,,,0.04,VWS V13.01,2013-02-07 17:27:00,
2013-02-07 11:28:00,43.5,18.4,29.29,East,90,0.0,0.0,36,0.04,,,0.04,VWS V13.01,2013-02-07 17:28:00,
2013-02-07 11:29:00,43.5,18.4,29.29,East,90,0.0,0.0,36,0.04,,,0.04,VWS V13.01,2013-02-07 17:29:00,
2013-02-07 11:30:00,43.7,18.5,29.29,East,90,0.0,0.0,36,0.00,,,0.04,VWS V13.01,2013-02-07 17:30:00,
2013-02-07 11:31:00,43.7,18.5,29.29,East,90,0.0,0.0,36,0.00,,,0.04,VWS V13.01,2013-02-07 17:31:00,
2013-02-07 11:32:00,43.7,18.5,29.29,East,90,0.0,0.0,36,0.00,,,0.04,VWS V13.01,2013-02-07 17:32:00,
2013-02-07 11:33:00,43.7,18.5,29.29,ESE,112,0.0,0.0,36,0.00,,,0.04,VWS V13.01,2013-02-07 17:33:00,
2013-02-07 11:34:00,43.7,18.5,29.29,ESE,112,0.0,0.0,36,0.00,,,0.04,VWS V13.01,2013-02-07 17:34:00,
2013-02-07 11:35:00,43.9,18.0,29.29,ESE,112,0.0,0.0,35,0.00,,,0.04,VWS V13.01,2013-02-07 17:35:00,
2013-02-07 11:36:00,44.1,18.2,29.29,ESE,112,0.0,0.0,35,0.00,,,0.04,VWS V13.01,2013-02-07 17:36:00,
2013-02-07 11:37:00,44.1,18.2,29.29,ESE,112,0.0,0.0,35,0.00,,,0.04,VWS V13.01,2013-02-07 17:37:00,
2013-02-07 11:38:00,44.1,18.2,29.29,ESE,112,0.0,0.0,35,0.00,,,0.04,VWS V13.01,2013-02-07 17:38:00,
2013-02-07 11:39:00,44.1,18.2,29.29,East,90,0.0,0.0,35,0.00,,,0.04,VWS V13.01,2013-02-07 17:39:00,
2013-02-07 11:40:00,44.2,18.3,29.29,East,90,0.0,0.0,35,0.00,,,0.04,VWS V13.01,2013-02-07 17:40:00,
2013-02-07 11:41:00,44.2,18.3,29.29,East,90,0.0,0.0,35,0.00,,,0.04,VWS V13.01,2013-02-07 17:41:00,
2013-02-07 11:42:00,44.4,18.5,29.29,East,90,0.0,0.0,35,0.00,,,0.04,VWS V13.01,2013-02-07 17:42:00,
2013-02-07 11:43:00,44.2,17.7,29.29,East,90,0.0,0.0,34,0.00,,,0.04,VWS V13.01,2013-02-07 17:43:00,
2013-02-07 11:44:00,44.4,18.5,29.29,East,90,0.0,0.0,35,0.00,,,0.04,VWS V13.01,2013-02-07 17:44:00,
2013-02-07 11:45:00,44.6,18.0,29.29,East,90,0.0,0.0,34,0.00,,,0.04,VWS V13.01,2013-02-07 17:45:00,
2013-02-07 11:46:00,44.6,18.0,29.29,East,90,0.0,0.0,34,0.00,,,0.04,VWS V13.01,2013-02-07 17:46:00,
2013-02-07 11:47:00,44.6,18.0,29.29,East,90,0.0,0.0,34,0.00,,,0.04,VWS V13.01,2013-02-07 17:47:00,
2013-02-07 11:48:00,44.6,18.0,29.29,East,90,0.0,0.0,34,0.00,,,0.04,VWS V13.01,2013-02-07 17:48:00,
2013-02-07 11:49:00,44.8,18.1,29.29,East,90,0.0,0.0,34,0.00,,,0.04,VWS V13.01,2013-02-07 17:49:00,
2013-02-07 11:50:00,44.8,18.1,29.29,East,90,0.0,0.0,34,0.00,,,0.04,VWS V13.01,2013-02-07 17:50:00,
2013-02-07 11:51:00,44.8,18.1,29.29,East,90,0.0,0.0,34,0.00,,,0.04,VWS V13.01,2013-02-07 17:51:00,
2013-02-07 11:52:00,45.0,19.0,29.29,East,90,0.0,0.0,35,0.00,,,0.04,VWS V13.01,2013-02-07 17:52:00,
2013-02-07 11:53:00,45.0,19.0,29.29,East,90,0.0,0.0,35,0.00,,,0.04,VWS V13.01,2013-02-07 17:53:00,
2013-02-07 11:54:00,45.0,19.0,29.29,East,90,0.0,0.0,35,0.00,,,0.04,VWS V13.01,2013-02-07 17:54:00,
2013-02-07 11:55:00,44.8,18.1,29.29,East,90,0.0,0.0,34,0.00,,,0.04,VWS V13.01,2013-02-07 17:55:00,
2013-02-07 11:56:00,45.0,18.3,29.29,East,90,0.0,0.0,34,0.00,,,0.04,VWS V13.01,2013-02-07 17:56:00,
2013-02-07 11:57:00,45.0,17.6,29.29,East,90,0.0,0.0,33,0.00,,,0.04,VWS V13.01,2013-02-07 17:57:00,
2013-02-07 11:58:00,45.0,18.3,29.29,East,90,0.0,0.0,34,0.00,,,0.04,VWS V13.01,2013-02-07 17:58:00,
2013-02-07 11:59:00,45.0,18.3,29.29,East,90,0.0,0.0,34,0.00,,,0.04,VWS V13.01,2013-02-07 17:59:00,
2013-02-07 12:00:00,45.0,17.6,29.29,East,90,0.0,0.0,33,0.00,,,0.04,VWS V13.01,2013-02-07 18:00:00,
2013-02-07 12:01:00,45.0,17.6,29.26,East,90,0.0,0.0,33,0.00,,,0.04,VWS V13.01,2013-02-07 18:01:00,
2013-02-07 12:02:00,45.0,18.3,29.26,East,90,0.0,0.0,34,0.00,,,0.04,VWS V13.01,2013-02-07 18:02:00,
2013-02-07 12:03:00,45.0,18.3,29.26,East,90,0.0,0.0,34,0.00,,,0.04,VWS V13.01,2013-02-07 18:03:00,
2013-02-07 12:04:00,45.0,18.3,29.26,East,90,0.0,0.0,34,0.00,,,0.04,VWS V13.01,2013-02-07 18:04:00,
2013-02-07 12:05:00,45.0,18.3,29.26,East,90,0.0,0.0,34,0.00,,,0.04,VWS V13.01,2013-02-07 18:05:00,
2013-02-07 12:06:00,45.0,18.3,29.26,East,90,0.0,0.0,34,0.00,,,0.04,VWS V13.01,2013-02-07 18:06:00,
2013-02-07 12:07:00,44.8,18.8,29.26,ESE,112,0.0,0.0,35,0.00,,,0.04,VWS V13.01,2013-02-07 18:07:00,
2013-02-07 12:08:00,44.8,18.8,29.26,ESE,112,0.0,0.0,35,0.00,,,0.04,VWS V13.01,2013-02-07 18:08:00,
2013-02-07 12:09:00,44.8,18.8,29.26,SE,135,0.0,0.0,35,0.00,,,0.04,VWS V13.01,2013-02-07 18:09:00,
2013-02-07 12:10:00,44.8,18.8,29.26,SE,135,0.0,0.0,35,0.00,,,0.04,VWS V13.01,2013-02-07 18:10:00,
2013-02-07 12:11:00,44.8,18.8,29.26,SE,135,0.0,0.0,35,0.00,,,0.04,VWS V13.01,2013-02-07 18:11:00,
2013-02-07 12:12:00,45.0,19.0,29.26,SE,135,0.0,0.0,35,0.00,,,0.04,VWS V13.01,2013-02-07 18:12:00,
2013-02-07 12:13:00,45.0,19.0,29.26,ESE,112,0.0,0.0,35,0.00,,,0.04,VWS V13.01,2013-02-07 18:13:00,
2013-02-07 12:14:00,45.0,19.0,29.26,ESE,112,0.0,0.0,35,0.00,,,0.04,VWS V13.01,2013-02-07 18:14:00,
2013-02-07 12:15:00,45.0,19.0,29.26,East,90,0.0,0.0,35,0.00,,,0.04,VWS V13.01,2013-02-07 18:15:00,
2013-02-07 12:16:00,45.0,19.0,29.26,East,90,0.0,0.0,35,0.00,,,0.04,VWS V13.01,2013-02-07 18:16:00,
2013-02-07 12:17:00,45.1,19.1,29.26,East,90,0.0,0.0,35,0.00,,,0.04,VWS V13.01,2013-02-07 18:17:00,
2013-02-07 12:18:00,45.1,19.1,29.26,East,90,0.0,0.0,35,0.00,,,0.04,VWS V13.01,2013-02-07 18:18:00,
2013-02-07 12:19:00,45.0,19.0,29.26,East,90,0.0,0.0,35,0.00,,,0.04,VWS V13.01,2013-02-07 18:19:00,
2013-02-07 12:20:00,45.0,19.0,29.26,East,90,0.0,0.0,35,0.00,,,0.04,VWS V13.01,2013-02-07 18:20:00,
2013-02-07 12:21:00,45.1,19.1,29.26,East,90,0.0,0.0,35,0.00,,,0.04,VWS V13.01,2013-02-07 18:21:00,
2013-02-07 12:22:00,45.1,19.1,29.26,East,90,0.0,0.0,35,0.00,,,0.04,VWS V13.01,2013-02-07 18:22:00,
2013-02-07 12:23:00,45.1,19.1,29.26,East,90,0.0,0.0,35,0.00,,,0.04,VWS V13.01,2013-02-07 18:23:00,
2013-02-07 12:24:00,45.1,19.1,29.26,East,90,0.0,0.0,35,0.00,,,0.04,VWS V13.01,2013-02-07 18:24:00,
2013-02-07 12:25:00,45.1,19.1,29.26,East,90,0.0,0.0,35,0.00,,,0.04,VWS V13.01,2013-02-07 18:25:00,
2013-02-07 12:26:00,45.1,19.1,29.26,East,90,0.0,0.0,35,0.00,,,0.04,VWS V13.01,2013-02-07 18:26:00,
2013-02-07 12:27:00,45.1,19.1,29.26,East,90,0.0,0.0,35,0.00,,,0.04,VWS V13.01,2013-02-07 18:27:00,
2013-02-07 12:28:00,45.1,19.1,29.26,East,90,0.0,0.0,35,0.00,,,0.04,VWS V13.01,2013-02-07 18:28:00,
2013-02-07 12:29:00,45.1,19.1,29.26,East,90,0.0,0.0,35,0.00,,,0.04,VWS V13.01,2013-02-07 18:29:00,
2013-02-07 12:30:00,45.3,19.3,29.26,East,90,0.0,0.0,35,0.00,,,0.04,VWS V13.01,2013-02-07 18:30:00,
2013-02-07 12:31:00,45.3,19.3,29.26,East,90,0.0,0.0,35,0.00,,,0.04,VWS V13.01,2013-02-07 18:31:00,
2013-02-07 12:32:00,45.3,19.3,29.26,East,90,0.0,0.0,35,0.00,,,0.04,VWS V13.01,2013-02-07 18:32:00,
2013-02-07 12:37:00,45.5,19.5,29.26,East,90,0.0,0.0,35,0.00,,,0.04,VWS V13.01,2013-02-07 18:37:00,
2013-02-07 12:42:00,45.7,19.6,29.26,East,90,0.0,0.0,35,0.00,,,0.04,VWS V13.01,2013-02-07 18:42:00,
2013-02-07 12:48:00,45.9,19.8,29.26,NW,315,0.0,0.0,35,0.00,,,0.04,VWS V13.01,2013-02-07 18:48:00,
2013-02-07 12:53:00,46.0,19.9,29.26,NW,315,0.0,0.0,35,0.00,,,0.04,VWS V13.01,2013-02-07 18:53:00,
2013-02-07 12:58:00,46.2,20.1,29.26,NW,315,0.0,0.0,35,0.00,,,0.04,VWS V13.01,2013-02-07 18:58:00,
2013-02-07 13:03:00,46.2,20.1,29.26,NW,315,0.0,0.0,35,0.00,,,0.04,VWS V13.01,2013-02-07 19:03:00,
2013-02-07 13:08:00,46.2,20.1,29.26,NW,315,0.0,0.0,35,0.00,,,0.04,VWS V13.01,2013-02-07 19:08:00,
2013-02-07 13:13:00,46.4,19.6,29.26,NW,315,0.0,0.0,34,0.00,,,0.04,VWS V13.01,2013-02-07 19:13:00,
2013-02-07 13:18:00,46.4,20.2,29.26,NW,315,0.0,0.0,35,0.00,,,0.04,VWS V13.01,2013-02-07 19:18:00,
2013-02-07 13:23:00,46.6,21.7,29.26,NW,315,0.0,0.0,37,0.00,,,0.04,VWS V13.01,2013-02-07 19:23:00,
2013-02-07 13:28:00,46.4,21.6,29.26,NW,315,0.0,0.0,37,0.00,,,0.04,VWS V13.01,2013-02-07 19:28:00,
2013-02-07 13:33:00,46.4,21.6,29.26,NW,315,0.0,0.0,37,0.00,,,0.04,VWS V13.01,2013-02-07 19:33:00,
2013-02-07 13:38:00,46.0,21.9,29.26,NW,315,0.0,0.0,38,0.00,,,0.04,VWS V13.01,2013-02-07 19:38:00,
2013-02-07 13:43:00,45.9,21.7,29.26,NW,315,0.0,0.0,38,0.00,,,0.04,VWS V13.01,2013-02-07 19:43:00,
2013-02-07 13:48:00,45.7,21.5,29.26,NW,315,0.0,0.0,38,0.00,,,0.04,VWS V13.01,2013-02-07 19:48:00,
2013-02-07 13:53:00,45.5,22.0,29.26,NW,315,0.0,0.0,39,0.00,,,0.04,VWS V13.01,2013-02-07 19:53:00,
2013-02-07 13:58:00,45.5,22.0,29.26,NW,315,0.0,0.0,39,0.00,,,0.04,VWS V13.01,2013-02-07 19:58:00,
2013-02-07 14:03:00,45.3,22.4,29.26,West,270,3.1,3.1,40,0.00,,,0.04,VWS V13.01,2013-02-07 20:03:00,
2013-02-07 14:08:00,45.0,23.3,29.26,West,270,0.0,0.0,42,0.00,,,0.04,VWS V13.01,2013-02-07 20:08:00,
2013-02-07 14:13:00,44.8,24.2,29.26,West,270,0.0,3.1,44,0.00,,,0.04,VWS V13.01,2013-02-07 20:13:00,
2013-02-07 14:19:00,44.6,25.6,29.26,WNW,292,0.0,0.0,47,0.04,,,0.08,VWS V13.01,2013-02-07 20:19:00,
2013-02-07 14:24:00,44.6,26.6,29.26,WNW,292,0.0,0.0,49,0.04,,,0.08,VWS V13.01,2013-02-07 20:24:00,
2013-02-07 14:29:00,44.2,26.8,29.26,NW,315,0.0,0.0,50,0.04,,,0.08,VWS V13.01,2013-02-07 20:29:00,
2013-02-07 14:34:00,44.2,27.3,29.26,WNW,292,0.0,0.0,51,0.04,,,0.08,VWS V13.01,2013-02-07 20:34:00,
2013-02-07 14:39:00,44.2,27.7,29.26,WNW,292,0.0,0.0,52,0.04,,,0.08,VWS V13.01,2013-02-07 20:39:00,
2013-02-07 14:44:00,44.2,28.7,29.26,WNW,292,0.0,0.0,54,0.04,,,0.08,VWS V13.01,2013-02-07 20:44:00,
2013-02-07 14:49:00,44.2,29.5,29.26,West,270,0.0,0.0,56,0.08,,,0.12,VWS V13.01,2013-02-07 20:49:00,
2013-02-07 14:54:00,44.4,30.6,29.26,West,270,0.0,0.0,58,0.08,,,0.12,VWS V13.01,2013-02-07 20:54:00,
2013-02-07 14:59:00,44.6,31.2,29.26,West,270,0.0,0.0,59,0.08,,,0.12,VWS V13.01,2013-02-07 20:59:00,
2013-02-07 15:04:00,44.8,32.6,29.26,WNW,292,0.0,0.0,62,0.08,,,0.12,VWS V13.01,2013-02-07 21:04:00,
2013-02-07 15:09:00,45.0,33.9,29.26,WNW,292,0.0,0.0,65,0.08,,,0.12,VWS V13.01,2013-02-07 21:09:00,
2013-02-07 15:14:00,45.1,34.8,29.26,WNW,292,0.0,0.0,67,0.08,,,0.12,VWS V13.01,2013-02-07 21:14:00,
2013-02-07 15:19:00,45.1,35.6,29.23,West,270,0.0,0.0,69,0.04,,,0.12,VWS V13.01,2013-02-07 21:19:00,
2013-02-07 15:25:00,45.3,36.5,29.23,West,270,0.0,0.0,71,0.04,,,0.12,VWS V13.01,2013-02-07 21:25:00,
2013-02-07 15:30:00,45.5,37.0,29.23,West,270,0.0,0.0,72,0.04,,,0.12,VWS V13.01,2013-02-07 21:30:00,
2013-02-07 15:35:00,45.5,37.0,29.23,West,270,0.0,0.0,72,0.04,,,0.12,VWS V13.01,2013-02-07 21:35:00,
2013-02-07 15:40:00,45.5,37.4,29.23,West,270,0.0,0.0,73,0.04,,,0.12,VWS V13.01,2013-02-07 21:40:00,
2013-02-07 15:45:00,45.5,37.7,29.23,West,270,0.0,0.0,74,0.04,,,0.12,VWS V13.01,2013-02-07 21:45:00,
2013-02-07 15:50:00,45.5,37.7,29.23,West,270,0.0,0.0,74,0.00,,,0.12,VWS V13.01,2013-02-07 21:50:00,
2013-02-07 15:55:00,45.5,38.0,29.23,West,270,0.0,0.0,75,0.00,,,0.12,VWS V13.01,2013-02-07 21:55:00,
2013-02-07 16:00:00,45.7,38.6,29.23,West,270,0.0,0.0,76,0.00,,,0.12,VWS V13.01,2013-02-07 22:00:00,
2013-02-07 16:05:00,45.9,38.7,29.23,West,270,0.0,0.0,76,0.00,,,0.12,VWS V13.01,2013-02-07 22:05:00,
2013-02-07 16:10:00,46.0,39.2,29.23,West,270,0.0,0.0,77,0.00,,,0.12,VWS V13.01,2013-02-07 22:10:00,
2013-02-07 16:15:00,46.0,39.2,29.23,West,270,0.0,0.0,77,0.00,,,0.12,VWS V13.01,2013-02-07 22:15:00,
2013-02-07 16:20:00,46.2,39.8,29.23,West,270,0.0,0.0,78,0.00,,,0.12,VWS V13.01,2013-02-07 22:20:00,
2013-02-07 16:25:00,46.2,39.8,29.23,West,270,0.0,0.0,78,0.00,,,0.12,VWS V13.01,2013-02-07 22:25:00,
2013-02-07 16:30:00,46.2,40.1,29.23,West,270,0.0,0.0,79,0.00,,,0.16,VWS V13.01,2013-02-07 22:30:00,
2013-02-07 16:35:00,46.2,40.4,29.26,West,270,0.0,0.0,80,0.04,,,0.16,VWS V13.01,2013-02-07 22:35:00,
2013-02-07 16:40:00,46.2,40.4,29.26,West,270,0.0,0.0,80,0.04,,,0.16,VWS V13.01,2013-02-07 22:40:00,
2013-02-07 16:45:00,46.4,40.6,29.26,NW,315,0.0,0.0,80,0.04,,,0.16,VWS V13.01,2013-02-07 22:45:00,
2013-02-07 16:50:00,46.0,40.5,29.26,NW,315,0.0,0.0,81,0.04,,,0.16,VWS V13.01,2013-02-07 22:50:00,
2013-02-07 16:55:00,45.9,40.4,29.26,NW,315,0.0,0.0,81,0.04,,,0.16,VWS V13.01,2013-02-07 22:55:00,
2013-02-07 17:00:00,45.7,40.5,29.26,West,270,0.0,0.0,82,0.04,,,0.16,VWS V13.01,2013-02-07 23:00:00,
2013-02-07 17:06:00,45.5,40.3,29.26,West,270,0.0,0.0,82,0.04,,,0.16,VWS V13.01,2013-02-07 23:06:00,
2013-02-07 17:11:00,45.5,40.7,29.26,West,270,0.0,0.0,83,0.04,,,0.16,VWS V13.01,2013-02-07 23:11:00,
2013-02-07 17:16:00,45.5,40.7,29.26,West,270,0.0,0.0,83,0.04,,,0.16,VWS V13.01,2013-02-07 23:16:00,
2013-02-07 17:21:00,45.7,40.8,29.26,WNW,292,0.0,0.0,83,0.04,,,0.16,VWS V13.01,2013-02-07 23:21:00,
2013-02-07 17:26:00,45.9,41.3,29.26,West,270,0.0,0.0,84,0.04,,,0.16,VWS V13.01,2013-02-07 23:26:00,
2013-02-07 17:31:00,46.0,41.5,29.26,WNW,292,0.0,0.0,84,0.04,,,0.16,VWS V13.01,2013-02-07 23:31:00,
2013-02-07 17:36:00,46.0,41.8,29.26,West,270,0.0,0.0,85,0.00,,,0.16,VWS V13.01,2013-02-07 23:36:00,
2013-02-07 17:41:00,46.2,42.0,29.26,WNW,292,5.8,6.7,85,0.00,,,0.16,VWS V13.01,2013-02-07 23:41:00,
2013-02-07 17:46:00,46.6,42.3,29.26,West,270,8.7,8.7,85,0.00,,,0.16,VWS V13.01,2013-02-07 23:46:00,
2013-02-07 17:51:00,46.8,42.8,29.26,West,270,8.3,10.1,86,0.00,,,0.16,VWS V13.01,2013-02-07 23:51:00,
2013-02-07 17:56:00,47.1,43.2,29.26,West,270,8.3,12.8,86,0.00,,,0.16,VWS V13.01,2013-02-07 23:56:00,
2013-02-07 18:01:00,47.3,43.3,29.26,West,270,8.3,13.6,86,0.00,,,0.16,VWS V13.01,2013-02-08 00:01:00,
2013-02-07 18:06:00,47.5,43.8,29.26,West,270,8.3,8.3,87,0.00,,,0.16,VWS V13.01,2013-02-08 00:06:00,
2013-02-07 18:11:00,47.7,44.0,29.26,West,270,8.1,12.3,87,0.00,,,0.16,VWS V13.01,2013-02-08 00:11:00,
2013-02-07 18:16:00,47.8,44.5,29.26,West,270,7.2,8.1,88,0.00,,,0.16,VWS V13.01,2013-02-08 00:16:00,
2013-02-07 18:21:00,47.8,44.5,29.26,West,270,8.3,8.3,88,0.00,,,0.16,VWS V13.01,2013-02-08 00:21:00,
2013-02-07 18:26:00,47.8,44.8,29.26,West,270,7.6,13.2,89,0.00,,,0.16,VWS V13.01,2013-02-08 00:26:00,
2013-02-07 18:31:00,47.8,44.8,29.29,West,270,12.3,12.3,89,0.00,,,0.16,VWS V13.01,2013-02-08 00:31:00,
2013-02-07 18:37:00,47.8,45.0,29.29,West,270,8.3,9.6,90,0.00,,,0.16,VWS V13.01,2013-02-08 00:37:00,
2013-02-07 18:42:00,47.8,45.0,29.29,West,270,9.6,12.3,90,0.00,,,0.16,VWS V13.01,2013-02-08 00:42:00,
2013-02-07 18:47:00,48.0,45.5,29.29,WNW,292,6.3,8.3,91,0.00,,,0.16,VWS V13.01,2013-02-08 00:47:00,
2013-02-07 18:52:00,47.8,45.3,29.29,WNW,292,7.6,7.6,91,0.00,,,0.16,VWS V13.01,2013-02-08 00:52:00,
2013-02-07 18:57:00,47.8,45.3,29.29,West,270,6.3,6.3,91,0.00,,,0.16,VWS V13.01,2013-02-08 00:57:00,
2013-02-07 19:02:00,47.7,45.5,29.29,WNW,292,6.3,6.3,92,0.00,,,0.16,VWS V13.01,2013-02-08 01:02:00,
2013-02-07 19:07:00,47.7,45.5,29.29,NW,315,6.3,6.3,92,0.00,,,0.16,VWS V13.01,2013-02-08 01:07:00,
2013-02-07 19:12:00,47.5,45.3,29.29,WNW,292,6.3,7.6,92,0.00,,,0.16,VWS V13.01,2013-02-08 01:12:00,
2013-02-07 19:17:00,47.3,45.4,29.29,NW,315,9.6,9.6,93,0.00,,,0.16,VWS V13.01,2013-02-08 01:17:00,
2013-02-07 19:22:00,46.8,44.8,29.29,NW,315,7.2,8.1,93,0.00,,,0.16,VWS V13.01,2013-02-08 01:22:00,
2013-02-07 19:27:00,46.4,44.5,29.29,NW,315,8.3,8.7,93,0.00,,,0.16,VWS V13.01,2013-02-08 01:27:00,
2013-02-07 19:32:00,46.0,44.1,29.32,NW,315,15.4,15.4,93,0.00,,,0.16,VWS V13.01,2013-02-08 01:32:00,
2013-02-07 19:37:00,45.5,43.6,29.32,NW,315,12.8,12.8,93,0.00,,,0.16,VWS V13.01,2013-02-08 01:37:00,
2013-02-07 19:42:00,45.0,43.1,29.32,NNW,338,6.3,13.2,93,0.00,,,0.16,VWS V13.01,2013-02-08 01:42:00,
2013-02-07 19:47:00,44.8,42.9,29.32,NW,315,8.1,10.1,93,0.00,,,0.16,VWS V13.01,2013-02-08 01:47:00,
2013-02-07 19:52:00,44.4,42.2,29.32,WNW,292,10.5,12.8,92,0.00,,,0.16,VWS V13.01,2013-02-08 01:52:00,
2013-02-07 19:57:00,44.1,41.3,29.32,NW,315,8.3,11.0,90,0.00,,,0.16,VWS V13.01,2013-02-08 01:57:00,
2013-02-07 20:02:00,43.7,40.4,29.32,West,270,9.6,18.8,88,0.00,,,0.16,VWS V13.01,2013-02-08 02:02:00,
2013-02-07 20:08:00,43.5,39.9,29.32,WNW,292,9.2,13.2,87,0.00,,,0.16,VWS V13.01,2013-02-08 02:08:00,
2013-02-07 20:13:00,43.3,39.1,29.32,NW,315,9.6,9.6,85,0.00,,,0.16,VWS V13.01,2013-02-08 02:13:00,
2013-02-07 20:18:00,43.2,38.0,29.32,NNW,338,15.4,15.4,82,0.00,,,0.16,VWS V13.01,2013-02-08 02:18:00,
2013-02-07 20:23:00,43.0,37.6,29.32,NW,315,17.5,17.5,81,0.00,,,0.16,VWS V13.01,2013-02-08 02:23:00,
2013-02-07 20:28:00,42.8,37.4,29.32,NW,315,8.7,8.7,81,0.00,,,0.16,VWS V13.01,2013-02-08 02:28:00,
2013-02-07 20:33:00,42.8,37.4,29.32,NW,315,7.6,12.3,81,0.00,,,0.16,VWS V13.01,2013-02-08 02:33:00,
2013-02-07 20:38:00,42.6,37.8,29.32,NW,315,9.6,13.2,83,0.00,,,0.16,VWS V13.01,2013-02-08 02:38:00,
2013-02-07 20:43:00,42.4,37.7,29.32,NNW,338,13.2,13.2,83,0.00,,,0.16,VWS V13.01,2013-02-08 02:43:00,
2013-02-07 20:48:00,42.4,38.0,29.32,NNW,338,10.1,13.6,84,0.00,,,0.16,VWS V13.01,2013-02-08 02:48:00,
2013-02-07 20:53:00,42.3,37.8,29.32,NW,315,7.6,11.4,84,0.00,,,0.16,VWS V13.01,2013-02-08 02:53:00,
2013-02-07 20:58:00,42.3,37.8,29.32,NW,315,10.1,11.0,84,0.00,,,0.16,VWS V13.01,2013-02-08 02:58:00,
2013-02-07 21:03:00,42.1,37.6,29.35,NNW,338,8.7,10.5,84,0.00,,,0.16,VWS V13.01,2013-02-08 03:03:00,
2013-02-07 21:08:00,41.9,37.4,29.35,North,0,13.6,18.3,84,0.00,,,0.16,VWS V13.01,2013-02-08 03:08:00,
2013-02-07 21:13:00,41.9,37.4,29.35,NNW,338,8.3,12.3,84,0.00,,,0.16,VWS V13.01,2013-02-08 03:13:00,
2013-02-07 21:18:00,41.5,36.8,29.38,NW,315,13.6,15.4,83,0.00,,,0.16,VWS V13.01,2013-02-08 03:18:00,
2013-02-07 21:23:00,41.4,36.3,29.38,West,270,11.0,11.0,82,0.00,,,0.16,VWS V13.01,2013-02-08 03:23:00,
2013-02-07 21:28:00,41.2,35.8,29.38,West,270,7.6,12.8,81,0.00,,,0.16,VWS V13.01,2013-02-08 03:28:00,
2013-02-07 21:33:00,41.0,35.6,29.38,West,270,10.5,10.5,81,0.00,,,0.16,VWS V13.01,2013-02-08 03:33:00,
2013-02-07 21:38:00,40.8,35.1,29.38,North,0,15.4,17.5,80,0.00,,,0.16,VWS V13.01,2013-02-08 03:38:00,
2013-02-07 21:44:00,40.6,35.0,29.38,NNW,338,12.3,13.2,80,0.00,,,0.16,VWS V13.01,2013-02-08 03:44:00,
2013-02-07 21:49:00,40.6,35.0,29.38,West,270,12.8,13.6,80,0.00,,,0.16,VWS V13.01,2013-02-08 03:49:00,
2013-02-07 21:54:00,40.5,34.5,29.38,NW,315,8.3,8.3,79,0.00,,,0.16,VWS V13.01,2013-02-08 03:54:00,
2013-02-07 21:59:00,40.3,34.0,29.38,NW,315,9.6,9.6,78,0.00,,,0.16,VWS V13.01,2013-02-08 03:59:00,
2013-02-07 22:04:00,40.1,33.8,29.41,NNW,338,8.1,10.1,78,0.00,,,0.16,VWS V13.01,2013-02-08 04:04:00,
2013-02-07 22:09:00,39.9,33.0,29.41,NW,315,8.7,8.7,76,0.00,,,0.16,VWS V13.01,2013-02-08 04:09:00,
2013-02-07 22:14:00,39.7,32.5,29.41,NW,315,5.8,8.7,75,0.00,,,0.16,VWS V13.01,2013-02-08 04:14:00,
2013-02-07 22:19:00,39.6,32.0,29.38,NNW,338,15.4,17.9,74,0.00,,,0.16,VWS V13.01,2013-02-08 04:19:00,
2013-02-07 22:24:00,39.4,31.5,29.38,NW,315,14.5,14.5,73,0.00,,,0.16,VWS V13.01,2013-02-08 04:24:00,
2013-02-07 22:29:00,39.4,31.5,29.38,NW,315,6.3,10.5,73,0.00,,,0.16,VWS V13.01,2013-02-08 04:29:00,
2013-02-07 22:34:00,39.2,31.3,29.38,NW,315,9.6,15.0,73,0.00,,,0.16,VWS V13.01,2013-02-08 04:34:00,
2013-02-07 22:39:00,39.0,31.5,29.38,NW,315,12.3,14.5,74,0.00,,,0.16,VWS V13.01,2013-02-08 04:39:00,
2013-02-07 22:44:00,38.8,31.3,29.38,WNW,292,13.2,13.2,74,0.00,,,0.16,VWS V13.01,2013-02-08 04:44:00,
2013-02-07 22:49:00,38.7,31.1,29.41,NW,315,8.7,8.7,74,0.00,,,0.16,VWS V13.01,2013-02-08 04:49:00,
2013-02-07 22:54:00,38.7,31.4,29.41,West,270,8.7,8.7,75,0.00,,,0.16,VWS V13.01,2013-02-08 04:54:00,
2013-02-07 22:59:00,38.3,31.1,29.41,West,270,8.1,11.9,75,0.00,,,0.16,VWS V13.01,2013-02-08 04:59:00,
2013-02-07 23:00:00,38.3,31.1,29.41,NW,315,7.6,11.9,75,0.00,,,0.16,VWS V13.01,2013-02-08 05:00:00,
2013-02-07 23:01:00,38.3,31.1,29.41,NW,315,10.1,13.2,75,0.00,,,0.16,VWS V13.01,2013-02-08 05:01:00,
2013-02-07 23:02:00,38.3,31.1,29.41,NW,315,7.6,12.8,75,0.00,,,0.16,VWS V13.01,2013-02-08 05:02:00,
2013-02-07 23:07:00,38.1,30.9,29.41,NNW,338,7.6,15.9,75,0.00,,,0.16,VWS V13.01,2013-02-08 05:07:00,
2013-02-07 23:12:00,38.1,30.9,29.41,NW,315,9.6,11.4,75,0.00,,,0.16,VWS V13.01,2013-02-08 05:12:00,
2013-02-07 23:17:00,37.9,30.4,29.41,NW,315,11.0,15.0,74,0.00,,,0.16,VWS V13.01,2013-02-08 05:17:00,
2013-02-07 23:22:00,37.9,30.1,29.41,NW,315,9.6,16.8,73,0.00,,,0.16,VWS V13.01,2013-02-08 05:22:00,
2013-02-07 23:27:00,37.9,30.1,29.41,NNW,338,9.2,13.2,73,0.00,,,0.16,VWS V13.01,2013-02-08 05:27:00,
2013-02-07 23:32:00,37.9,29.7,29.41,NW,315,8.3,8.7,72,0.00,,,0.16,VWS V13.01,2013-02-08 05:32:00,
2013-02-07 23:38:00,37.8,29.6,29.41,WNW,292,8.1,8.1,72,0.00,,,0.16,VWS V13.01,2013-02-08 05:38:00,
2013-02-07 23:43:00,37.8,29.6,29.41,West,270,10.1,14.1,72,0.00,,,0.16,VWS V13.01,2013-02-08 05:43:00,
2013-02-07 23:48:00,37.8,29.2,29.41,NW,315,8.3,11.4,71,0.00,,,0.16,VWS V13.01,2013-02-08 05:48:00,
2013-02-07 23:53:00,37.8,28.9,29.41,NW,315,6.3,8.3,70,0.00,,,0.16,VWS V13.01,2013-02-08 05:53:00,
2013-02-07 23:58:00,37.6,28.4,29.41,West,270,6.3,14.5,69,0.00,,,0.16,VWS V13.01,2013-02-08 05:58:00,